Wetterdaten: Montag, 04.03.2013
Datum Zeit Temp. Aussen +5cm Feuchte Auss Luftdruck Regen Sonnenschein Regendauer UV Solar Windben
04.03.2013 00:00 1,7 C -1,0 C 85 % 1022,3 hPa 0,0 l/m 0 min 0 min 0,0 UV-I 0 W/m 0,0 km/h (0 Bft)
04.03.2013 00:02 1,7 C -1,0 C 85 % 1022,3 hPa 0,0 l/m 0 min 0 min 0,0 UV-I 0 W/m 0,0 km/h (0 Bft)
04.03.2013 00:06 1,6 C -1,6 C 84 % 1022,3 hPa 0,0 l/m 0 min 0 min 0,0 UV-I 0 W/m 0,0 km/h (0 Bft)
04.03.2013 00:08 1,6 C -1,6 C 84 % 1022,3 hPa 0,0 l/m 0 min 0 min 0,0 UV-I 0 W/m 0,0 km/h (0 Bft)
04.03.2013 00:10 1,5 C -1,6 C 84 % 1022,3 hPa 0,0 l/m 0 min 0 min 0,0 UV-I 0 W/m 0,0 km/h (0 Bft)
04.03.2013 00:12 1,4 C -1,6 C 84 % 1022,2 hPa 0,0 l/m 0 min 0 min 0,0 UV-I 0 W/m 0,0 km/h (0 Bft)
04.03.2013 00:14 1,3 C -2,1 C 84 % 1022,2 hPa 0,0 l/m 0 min 0 min 0,0 UV-I 0 W/m 0,0 km/h (0 Bft)
04.03.2013 00:16 1,3 C -2,1 C 84 % 1022,2 hPa 0,0 l/m 0 min 0 min 0,0 UV-I 0 W/m 0,0 km/h (0 Bft)
04.03.2013 00:18 1,3 C -2,1 C 84 % 1022,2 hPa 0,0 l/m 0 min 0 min 0,0 UV-I 0 W/m 0,0 km/h (0 Bft)
04.03.2013 00:20 1,3 C -2,1 C 85 % 1022,2 hPa 0,0 l/m 0 min 0 min 0,0 UV-I 0 W/m 0,0 km/h (0 Bft)
04.03.2013 00:22 1,3 C -2,1 C 85 % 1022,2 hPa 0,0 l/m 0 min 0 min 0,0 UV-I 0 W/m 0,0 km/h (0 Bft)
04.03.2013 00:24 1,2 C -2,1 C 85 % 1022,1 hPa 0,0 l/m 0 min 0 min 0,0 UV-I 0 W/m 0,0 km/h (0 Bft)
04.03.2013 00:26 1,2 C -2,1 C 85 % 1022,1 hPa 0,0 l/m 0 min 0 min 0,0 UV-I 0 W/m 0,0 km/h (0 Bft)
04.03.2013 00:28 1,1 C -2,1 C 85 % 1022,2 hPa 0,0 l/m 0 min 0 min 0,0 UV-I 0 W/m 0,0 km/h (0 Bft)
04.03.2013 00:30 1,0 C -2,1 C 85 % 1022,2 hPa 0,0 l/m 0 min 0 min 0,0 UV-I 0 W/m 0,0 km/h (0 Bft)
04.03.2013 00:32 0,9 C -2,1 C 85 % 1022,1 hPa 0,0 l/m 0 min 0 min 0,0 UV-I 0 W/m 0,0 km/h (0 Bft)
04.03.2013 00:34 0,9 C -2,1 C 85 % 1022,0 hPa 0,0 l/m 0 min 0 min 0,0 UV-I 0 W/m 0,0 km/h (0 Bft)
04.03.2013 00:36 0,8 C -2,1 C 85 % 1021,9 hPa 0,0 l/m 0 min 0 min 0,0 UV-I 0 W/m 0,0 km/h (0 Bft)
04.03.2013 00:38 0,8 C -2,1 C 86 % 1021,9 hPa 0,0 l/m 0 min 0 min 0,0 UV-I 0 W/m 0,0 km/h (0 Bft)
04.03.2013 00:40 0,8 C -2,1 C 86 % 1021,9 hPa 0,0 l/m 0 min 0 min 0,0 UV-I 0 W/m 0,0 km/h (0 Bft)
04.03.2013 00:42 0,7 C -2,1 C 86 % 1022,0 hPa 0,0 l/m 0 min 0 min 0,0 UV-I 0 W/m 5,1 km/h (1 Bft)
04.03.2013 00:44 0,7 C -2,1 C 87 % 1022,0 hPa 0,0 l/m 0 min 0 min 0,0 UV-I 0 W/m 0,0 km/h (0 Bft)
04.03.2013 00:46 0,7 C -2,1 C 87 % 1022,0 hPa 0,0 l/m 0 min 0 min 0,0 UV-I 0 W/m 5,1 km/h (1 Bft)
04.03.2013 00:48 0,7 C -1,6 C 87 % 1022,0 hPa 0,0 l/m 0 min 0 min 0,0 UV-I 0 W/m 2,6 km/h (1 Bft)
04.03.2013 00:50 0,7 C -1,0 C 88 % 1021,9 hPa 0,0 l/m 0 min 0 min 0,0 UV-I 0 W/m 5,1 km/h (1 Bft)
04.03.2013 00:52 0,6 C -1,0 C 88 % 1021,9 hPa 0,0 l/m 0 min 0 min 0,0 UV-I 0 W/m 0,0 km/h (0 Bft)
04.03.2013 00:54 0,7 C -1,0 C 88 % 1021,8 hPa 0,0 l/m 0 min 0 min 0,0 UV-I 0 W/m 0,0 km/h (0 Bft)
04.03.2013 00:56 0,7 C -1,0 C 88 % 1021,9 hPa 0,0 l/m 0 min 0 min 0,0 UV-I 0 W/m 2,6 km/h (1 Bft)
04.03.2013 00:58 0,7 C -1,0 C 88 % 1021,9 hPa 0,0 l/m 0 min 0 min 0,0 UV-I 0 W/m 7,7 km/h (2 Bft)
04.03.2013 01:00 0,7 C -1,0 C 89 % 1021,8 hPa 0,0 l/m 0 min 0 min 0,0 UV-I 0 W/m 2,6 km/h (1 Bft)
04.03.2013 01:02 0,7 C -1,0 C 89 % 1021,8 hPa 0,0 l/m 0 min 0 min 0,0 UV-I 0 W/m 5,1 km/h (1 Bft)
04.03.2013 01:04 0,7 C -1,0 C 89 % 1021,9 hPa 0,0 l/m 0 min 0 min 0,0 UV-I 0 W/m 2,6 km/h (1 Bft)
04.03.2013 01:06 0,7 C -1,0 C 89 % 1021,8 hPa 0,0 l/m 0 min 0 min 0,0 UV-I 0 W/m 0,0 km/h (0 Bft)
04.03.2013 01:08 0,7 C -1,0 C 89 % 1021,7 hPa 0,0 l/m 0 min 0 min 0,0 UV-I 0 W/m 0,0 km/h (0 Bft)
04.03.2013 01:10 0,7 C -1,0 C 89 % 1021,8 hPa 0,0 l/m 0 min 0 min 0,0 UV-I 0 W/m 2,6 km/h (1 Bft)
04.03.2013 01:12 0,7 C -1,0 C 89 % 1021,8 hPa 0,0 l/m 0 min 0 min 0,0 UV-I 0 W/m 0,0 km/h (0 Bft)
04.03.2013 01:14 0,7 C -1,0 C 89 % 1021,8 hPa 0,0 l/m 0 min 0 min 0,0 UV-I 0 W/m 2,6 km/h (1 Bft)
04.03.2013 01:16 0,7 C -1,0 C 89 % 1021,8 hPa 0,0 l/m 0 min 0 min 0,0 UV-I 0 W/m 0,0 km/h (0 Bft)
04.03.2013 01:18 0,7 C -1,0 C 89 % 1021,9 hPa 0,0 l/m 0 min 0 min 0,0 UV-I 0 W/m 0,0 km/h (0 Bft)
04.03.2013 01:20 0,7 C -1,0 C 89 % 1021,8 hPa 0,0 l/m 0 min 0 min 0,0 UV-I 0 W/m 0,0 km/h (0 Bft)
04.03.2013 01:22 0,7 C -1,6 C 89 % 1021,8 hPa 0,0 l/m 0 min 0 min 0,0 UV-I 0 W/m 0,0 km/h (0 Bft)
04.03.2013 01:24 0,7 C -1,6 C 89 % 1021,7 hPa 0,0 l/m 0 min 0 min 0,0 UV-I 0 W/m 2,6 km/h (1 Bft)
04.03.2013 01:26 0,7 C -1,6 C 89 % 1021,8 hPa 0,0 l/m 0 min 0 min 0,0 UV-I 0 W/m 5,1 km/h (1 Bft)
04.03.2013 01:28 0,7 C -1,0 C 89 % 1021,7 hPa 0,0 l/m 0 min 0 min 0,0 UV-I 0 W/m 5,1 km/h (1 Bft)
04.03.2013 01:30 0,7 C -1,0 C 89 % 1021,7 hPa 0,0 l/m 0 min 0 min 0,0 UV-I 0 W/m 7,7 km/h (2 Bft)
04.03.2013 01:32 0,7 C -1,0 C 89 % 1021,7 hPa 0,0 l/m 0 min 0 min 0,0 UV-I 0 W/m 7,7 km/h (2 Bft)
04.03.2013 01:34 0,6 C -1,0 C 89 % 1021,7 hPa 0,0 l/m 0 min 0 min 0,0 UV-I 0 W/m 5,1 km/h (1 Bft)
04.03.2013 01:36 0,6 C -1,0 C 89 % 1021,7 hPa 0,0 l/m 0 min 0 min 0,0 UV-I 0 W/m 2,6 km/h (1 Bft)
04.03.2013 01:38 0,6 C -1,0 C 89 % 1021,7 hPa 0,0 l/m 0 min 0 min 0,0 UV-I 0 W/m 5,1 km/h (1 Bft)
04.03.2013 01:40 0,6 C -1,0 C 89 % 1021,7 hPa 0,0 l/m 0 min 0 min 0,0 UV-I 0 W/m 5,1 km/h (1 Bft)
04.03.2013 01:42 0,6 C -1,6 C 89 % 1021,7 hPa 0,0 l/m 0 min 0 min 0,0 UV-I 0 W/m 0,0 km/h (0 Bft)
04.03.2013 01:44 0,6 C -1,6 C 89 % 1021,7 hPa 0,0 l/m 0 min 0 min 0,0 UV-I 0 W/m 0,0 km/h (0 Bft)
04.03.2013 01:46 0,6 C -1,0 C 89 % 1021,7 hPa 0,0 l/m 0 min 0 min 0,0 UV-I 0 W/m 0,0 km/h (0 Bft)
04.03.2013 01:48 0,5 C -1,0 C 89 % 1021,8 hPa 0,0 l/m 0 min 0 min 0,0 UV-I 0 W/m 0,0 km/h (0 Bft)
04.03.2013 01:50 0,5 C -1,6 C 89 % 1021,7 hPa 0,0 l/m 0 min 0 min 0,0 UV-I 0 W/m 2,6 km/h (1 Bft)
04.03.2013 01:52 0,5 C -1,6 C 89 % 1021,6 hPa 0,0 l/m 0 min 0 min 0,0 UV-I 0 W/m 0,0 km/h (0 Bft)
04.03.2013 01:54 0,5 C -1,6 C 89 % 1021,7 hPa 0,0 l/m 0 min 0 min 0,0 UV-I 0 W/m 2,6 km/h (1 Bft)
04.03.2013 01:56 0,4 C -1,6 C 89 % 1021,6 hPa 0,0 l/m 0 min 0 min 0,0 UV-I 0 W/m 0,0 km/h (0 Bft)
04.03.2013 01:58 0,4 C -1,6 C 89 % 1021,6 hPa 0,0 l/m 0 min 0 min 0,0 UV-I 0 W/m 2,6 km/h (1 Bft)
04.03.2013 02:00 0,4 C -1,6 C 89 % 1021,6 hPa 0,0 l/m 0 min 0 min 0,0 UV-I 0 W/m 5,1 km/h (1 Bft)
04.03.2013 02:02 0,4 C -1,6 C 89 % 1021,7 hPa 0,0 l/m 0 min 0 min 0,0 UV-I 0 W/m 0,0 km/h (0 Bft)
04.03.2013 02:04 0,4 C -1,6 C 89 % 1021,7 hPa 0,0 l/m 0 min 0 min 0,0 UV-I 0 W/m 0,0 km/h (0 Bft)
04.03.2013 02:06 0,3 C -1,6 C 89 % 1021,7 hPa 0,0 l/m 0 min 0 min 0,0 UV-I 0 W/m 5,1 km/h (1 Bft)
04.03.2013 02:08 0,3 C -1,6 C 89 % 1021,7 hPa 0,0 l/m 0 min 0 min 0,0 UV-I 0 W/m 0,0 km/h (0 Bft)
04.03.2013 02:10 0,3 C -1,6 C 89 % 1021,6 hPa 0,0 l/m 0 min 0 min 0,0 UV-I 0 W/m 5,1 km/h (1 Bft)
04.03.2013 02:12 0,3 C -1,6 C 90 % 1021,7 hPa 0,0 l/m 0 min 0 min 0,0 UV-I 0 W/m 0,0 km/h (0 Bft)
04.03.2013 02:14 0,3 C -1,6 C 90 % 1021,7 hPa 0,0 l/m 0 min 0 min 0,0 UV-I 0 W/m 5,1 km/h (1 Bft)
04.03.2013 02:16 0,3 C -1,6 C 90 % 1021,7 hPa 0,0 l/m 0 min 0 min 0,0 UV-I 0 W/m 5,1 km/h (1 Bft)
04.03.2013 02:18 0,3 C -1,6 C 90 % 1021,6 hPa 0,0 l/m 0 min 0 min 0,0 UV-I 0 W/m 0,0 km/h (0 Bft)
04.03.2013 02:20 0,3 C -1,6 C 90 % 1021,6 hPa 0,0 l/m 0 min 0 min 0,0 UV-I 0 W/m 2,6 km/h (1 Bft)
04.03.2013 02:22 0,3 C -1,6 C 90 % 1021,6 hPa 0,0 l/m 0 min 0 min 0,0 UV-I 0 W/m 5,1 km/h (1 Bft)
04.03.2013 02:24 0,3 C -1,6 C 90 % 1021,6 hPa 0,0 l/m 0 min 0 min 0,0 UV-I 0 W/m 5,1 km/h (1 Bft)
04.03.2013 02:26 0,2 C -1,6 C 90 % 1021,5 hPa 0,0 l/m 0 min 0 min 0,0 UV-I 0 W/m 5,1 km/h (1 Bft)
04.03.2013 02:28 0,2 C -1,6 C 90 % 1021,5 hPa 0,0 l/m 0 min 0 min 0,0 UV-I 0 W/m 5,1 km/h (1 Bft)
04.03.2013 02:30 0,2 C -1,6 C 90 % 1021,5 hPa 0,0 l/m 0 min 0 min 0,0 UV-I 0 W/m 5,1 km/h (1 Bft)
04.03.2013 02:32 0,2 C -1,6 C 90 % 1021,5 hPa 0,0 l/m 0 min 0 min 0,0 UV-I 0 W/m 10,3 km/h (2 Bft)
04.03.2013 02:34 0,2 C -1,6 C 90 % 1021,5 hPa 0,0 l/m 0 min 0 min 0,0 UV-I 0 W/m 2,6 km/h (1 Bft)
04.03.2013 02:36 0,2 C -1,6 C 90 % 1021,5 hPa 0,0 l/m 0 min 0 min 0,0 UV-I 0 W/m 10,3 km/h (2 Bft)
04.03.2013 02:38 0,2 C -1,6 C 96 % 1021,5 hPa 0,0 l/m 0 min 0 min 0,0 UV-I 0 W/m 7,7 km/h (2 Bft)
04.03.2013 02:40 0,2 C -1,6 C 96 % 1021,5 hPa 0,0 l/m 0 min 0 min 0,0 UV-I 0 W/m 0,0 km/h (0 Bft)
04.03.2013 02:42 0,2 C -1,6 C 96 % 1021,4 hPa 0,0 l/m 0 min 0 min 0,0 UV-I 0 W/m 7,7 km/h (2 Bft)
04.03.2013 02:44 0,2 C -1,6 C 96 % 1021,4 hPa 0,0 l/m 0 min 0 min 0,0 UV-I 0 W/m 5,1 km/h (1 Bft)
04.03.2013 02:46 0,2 C -1,6 C 90 % 1021,4 hPa 0,0 l/m 0 min 0 min 0,0 UV-I 0 W/m 7,7 km/h (2 Bft)
04.03.2013 02:48 0,2 C -1,6 C 90 % 1021,3 hPa 0,0 l/m 0 min 0 min 0,0 UV-I 0 W/m 0,0 km/h (0 Bft)
04.03.2013 02:50 0,2 C -1,6 C 90 % 1021,4 hPa 0,0 l/m 0 min 0 min 0,0 UV-I 0 W/m 2,6 km/h (1 Bft)
04.03.2013 02:52 0,2 C -1,6 C 90 % 1021,4 hPa 0,0 l/m 0 min 0 min 0,0 UV-I 0 W/m 5,1 km/h (1 Bft)
04.03.2013 02:54 0,2 C -1,6 C 90 % 1021,5 hPa 0,0 l/m 0 min 0 min 0,0 UV-I 0 W/m 7,7 km/h (2 Bft)
04.03.2013 02:56 0,1 C -1,6 C 90 % 1021,4 hPa 0,0 l/m 0 min 0 min 0,0 UV-I 0 W/m 7,7 km/h (2 Bft)
04.03.2013 02:58 0,1 C -1,6 C 90 % 1021,4 hPa 0,0 l/m 0 min 0 min 0,0 UV-I 0 W/m 5,1 km/h (1 Bft)
04.03.2013 03:00 0,1 C -1,6 C 90 % 1021,4 hPa 0,0 l/m 0 min 0 min 0,0 UV-I 0 W/m 7,7 km/h (2 Bft)
04.03.2013 03:02 0,1 C -1,6 C 90 % 1021,3 hPa 0,0 l/m 0 min 0 min 0,0 UV-I 0 W/m 10,3 km/h (2 Bft)
04.03.2013 03:06 0,1 C -1,6 C 90 % 1021,4 hPa 0,0 l/m 0 min 0 min 0,0 UV-I 0 W/m 5,1 km/h (1 Bft)
04.03.2013 03:08 0,1 C -1,6 C 90 % 1021,3 hPa 0,0 l/m 0 min 0 min 0,0 UV-I 0 W/m 7,7 km/h (2 Bft)
04.03.2013 03:10 0,1 C -1,6 C 90 % 1021,3 hPa 0,0 l/m 0 min 0 min 0,0 UV-I 0 W/m 7,7 km/h (2 Bft)
04.03.2013 03:12 0,1 C -1,6 C 90 % 1021,3 hPa 0,0 l/m 0 min 0 min 0,0 UV-I 0 W/m 5,1 km/h (1 Bft)
04.03.2013 03:14 0,1 C -1,6 C 90 % 1021,3 hPa 0,0 l/m 0 min 0 min 0,0 UV-I 0 W/m 5,1 km/h (1 Bft)
04.03.2013 03:16 0,1 C -1,6 C 90 % 1021,3 hPa 0,0 l/m 0 min 0 min 0,0 UV-I 0 W/m 5,1 km/h (1 Bft)
04.03.2013 03:18 0,0 C -1,6 C 90 % 1021,3 hPa 0,0 l/m 0 min 0 min 0,0 UV-I 0 W/m 10,3 km/h (2 Bft)
04.03.2013 03:20 0,0 C -1,6 C 90 % 1021,2 hPa 0,0 l/m 0 min 0 min 0,0 UV-I 0 W/m 7,7 km/h (2 Bft)
04.03.2013 03:22 0,0 C -1,6 C 90 % 1021,3 hPa 0,0 l/m 0 min 0 min 0,0 UV-I 0 W/m 7,7 km/h (2 Bft)
04.03.2013 03:24 0,0 C -1,6 C 90 % 1021,3 hPa 0,0 l/m 0 min 0 min 0,0 UV-I 0 W/m 7,7 km/h (2 Bft)
04.03.2013 03:26 0,0 C -1,6 C 90 % 1021,3 hPa 0,0 l/m 0 min 0 min 0,0 UV-I 0 W/m 5,1 km/h (1 Bft)
04.03.2013 03:28 0,0 C -1,6 C 90 % 1021,2 hPa 0,0 l/m 0 min 0 min 0,0 UV-I 0 W/m 7,7 km/h (2 Bft)
04.03.2013 03:30 0,0 C -1,6 C 90 % 1021,2 hPa 0,0 l/m 0 min 0 min 0,0 UV-I 0 W/m 10,3 km/h (2 Bft)
04.03.2013 03:32 0,0 C -1,6 C 90 % 1021,2 hPa 0,0 l/m 0 min 0 min 0,0 UV-I 0 W/m 7,7 km/h (2 Bft)
04.03.2013 03:34 -0,1 C -1,6 C 90 % 1021,2 hPa 0,0 l/m 0 min 0 min 0,0 UV-I 0 W/m 15,4 km/h (3 Bft)
04.03.2013 03:36 -0,1 C -1,6 C 90 % 1021,2 hPa 0,0 l/m 0 min 0 min 0,0 UV-I 0 W/m 10,3 km/h (2 Bft)
04.03.2013 03:38 -0,1 C -1,6 C 90 % 1021,0 hPa 0,0 l/m 0 min 0 min 0,0 UV-I 0 W/m 12,9 km/h (3 Bft)
04.03.2013 03:40 -0,1 C -1,6 C 90 % 1021,1 hPa 0,0 l/m 0 min 0 min 0,0 UV-I 0 W/m 5,1 km/h (1 Bft)
04.03.2013 03:42 -0,1 C -1,6 C 90 % 1021,1 hPa 0,0 l/m 0 min 0 min 0,0 UV-I 0 W/m 15,4 km/h (3 Bft)
04.03.2013 03:44 -0,1 C -1,6 C 90 % 1021,1 hPa 0,0 l/m 0 min 0 min 0,0 UV-I 0 W/m 7,7 km/h (2 Bft)
04.03.2013 03:46 -0,1 C -1,6 C 90 % 1021,1 hPa 0,0 l/m 0 min 0 min 0,0 UV-I 0 W/m 5,1 km/h (1 Bft)
04.03.2013 03:48 -0,1 C -1,6 C 90 % 1021,1 hPa 0,0 l/m 0 min 0 min 0,0 UV-I 0 W/m 12,9 km/h (3 Bft)
04.03.2013 03:50 -0,1 C -1,6 C 90 % 1021,0 hPa 0,0 l/m 0 min 0 min 0,0 UV-I 0 W/m 7,7 km/h (2 Bft)
04.03.2013 03:52 -0,1 C -1,6 C 90 % 1020,8 hPa 0,0 l/m 0 min 0 min 0,0 UV-I 0 W/m 12,9 km/h (3 Bft)
04.03.2013 03:54 -0,1 C -1,6 C 90 % 1020,8 hPa 0,0 l/m 0 min 0 min 0,0 UV-I 0 W/m 7,7 km/h (2 Bft)
04.03.2013 03:56 -0,1 C -1,6 C 90 % 1020,8 hPa 0,0 l/m 0 min 0 min 0,0 UV-I 0 W/m 2,6 km/h (1 Bft)
04.03.2013 03:58 -0,1 C -1,6 C 90 % 1020,9 hPa 0,0 l/m 0 min 0 min 0,0 UV-I 0 W/m 10,3 km/h (2 Bft)
04.03.2013 04:00 -0,1 C -1,6 C 90 % 1020,9 hPa 0,0 l/m 0 min 0 min 0,0 UV-I 0 W/m 5,1 km/h (1 Bft)
04.03.2013 04:02 -0,1 C -1,6 C 90 % 1020,9 hPa 0,0 l/m 0 min 0 min 0,0 UV-I 0 W/m 12,9 km/h (3 Bft)
04.03.2013 04:04 -0,1 C -1,6 C 90 % 1020,8 hPa 0,0 l/m 0 min 0 min 0,0 UV-I 0 W/m 7,7 km/h (2 Bft)
04.03.2013 04:06 -0,1 C -1,6 C 90 % 1020,8 hPa 0,0 l/m 0 min 0 min 0,0 UV-I 0 W/m 15,4 km/h (3 Bft)
04.03.2013 04:08 -0,1 C -1,6 C 90 % 1020,9 hPa 0,0 l/m 0 min 0 min 0,0 UV-I 0 W/m 15,4 km/h (3 Bft)
04.03.2013 04:10 -0,1 C -1,6 C 90 % 1020,8 hPa 0,0 l/m 0 min 0 min 0,0 UV-I 0 W/m 7,7 km/h (2 Bft)
04.03.2013 04:12 -0,1 C -1,6 C 90 % 1020,8 hPa 0,0 l/m 0 min 0 min 0,0 UV-I 0 W/m 7,7 km/h (2 Bft)
04.03.2013 04:14 -0,1 C -1,6 C 90 % 1020,9 hPa 0,0 l/m 0 min 0 min 0,0 UV-I 0 W/m 5,1 km/h (1 Bft)
04.03.2013 04:16 -0,1 C -1,6 C 90 % 1020,8 hPa 0,0 l/m 0 min 0 min 0,0 UV-I 0 W/m 12,9 km/h (3 Bft)
04.03.2013 04:18 -0,2 C -1,6 C 90 % 1020,8 hPa 0,0 l/m 0 min 0 min 0,0 UV-I 0 W/m 7,7 km/h (2 Bft)
04.03.2013 04:20 -0,2 C -1,6 C 90 % 1020,8 hPa 0,0 l/m 0 min 0 min 0,0 UV-I 0 W/m 7,7 km/h (2 Bft)
04.03.2013 04:22 -0,2 C -1,6 C 90 % 1020,7 hPa 0,0 l/m 0 min 0 min 0,0 UV-I 0 W/m 7,7 km/h (2 Bft)
04.03.2013 04:24 -0,2 C -1,6 C 90 % 1020,7 hPa 0,0 l/m 0 min 0 min 0,0 UV-I 0 W/m 7,7 km/h (2 Bft)
04.03.2013 04:26 -0,2 C -1,6 C 90 % 1020,7 hPa 0,0 l/m 0 min 0 min 0,0 UV-I 0 W/m 10,3 km/h (2 Bft)
04.03.2013 04:28 -0,2 C -1,6 C 90 % 1020,6 hPa 0,0 l/m 0 min 0 min 0,0 UV-I 0 W/m 12,9 km/h (3 Bft)
04.03.2013 04:30 -0,2 C -1,6 C 90 % 1020,6 hPa 0,0 l/m 0 min 0 min 0,0 UV-I 0 W/m 7,7 km/h (2 Bft)
04.03.2013 04:32 -0,2 C -1,6 C 90 % 1020,6 hPa 0,0 l/m 0 min 0 min 0,0 UV-I 0 W/m 7,7 km/h (2 Bft)
04.03.2013 04:34 -0,2 C -1,6 C 90 % 1020,6 hPa 0,0 l/m 0 min 0 min 0,0 UV-I 0 W/m 7,7 km/h (2 Bft)
04.03.2013 04:36 -0,2 C -1,6 C 90 % 1020,6 hPa 0,0 l/m 0 min 0 min 0,0 UV-I 0 W/m 15,4 km/h (3 Bft)
04.03.2013 04:38 -0,2 C -1,6 C 90 % 1020,5 hPa 0,0 l/m 0 min 0 min 0,0 UV-I 0 W/m 10,3 km/h (2 Bft)
04.03.2013 04:40 -0,2 C -1,6 C 90 % 1020,6 hPa 0,0 l/m 0 min 0 min 0,0 UV-I 0 W/m 12,9 km/h (3 Bft)
04.03.2013 04:42 -0,2 C -1,6 C 90 % 1020,5 hPa 0,0 l/m 0 min 0 min 0,0 UV-I 0 W/m 12,9 km/h (3 Bft)
04.03.2013 04:44 -0,2 C -1,6 C 90 % 1020,7 hPa 0,0 l/m 0 min 0 min 0,0 UV-I 0 W/m 15,4 km/h (3 Bft)
04.03.2013 04:46 -0,2 C -1,6 C 90 % 1020,5 hPa 0,0 l/m 0 min 0 min 0,0 UV-I 0 W/m 15,4 km/h (3 Bft)
04.03.2013 04:48 -0,2 C -1,6 C 90 % 1020,6 hPa 0,0 l/m 0 min 0 min 0,0 UV-I 0 W/m 12,9 km/h (3 Bft)
04.03.2013 04:50 -0,2 C -1,6 C 90 % 1020,6 hPa 0,0 l/m 0 min 0 min 0,0 UV-I 0 W/m 7,7 km/h (2 Bft)
04.03.2013 04:52 -0,2 C -1,6 C 90 % 1020,5 hPa 0,0 l/m 0 min 0 min 0,0 UV-I 0 W/m 10,3 km/h (2 Bft)
04.03.2013 04:54 -0,2 C -1,6 C 90 % 1020,5 hPa 0,0 l/m 0 min 0 min 0,0 UV-I 0 W/m 7,7 km/h (2 Bft)
04.03.2013 04:56 -0,2 C -1,6 C 90 % 1020,5 hPa 0,0 l/m 0 min 0 min 0,0 UV-I 0 W/m 7,7 km/h (2 Bft)
04.03.2013 04:58 -0,2 C -1,6 C 96 % 1020,4 hPa 0,0 l/m 0 min 0 min 0,0 UV-I 0 W/m 10,3 km/h (2 Bft)
04.03.2013 05:00 -0,2 C -1,6 C 90 % 1020,4 hPa 0,0 l/m 0 min 0 min 0,0 UV-I 0 W/m 5,1 km/h (1 Bft)
04.03.2013 05:02 -0,2 C -1,6 C 90 % 1020,4 hPa 0,0 l/m 0 min 0 min 0,0 UV-I 0 W/m 7,7 km/h (2 Bft)
04.03.2013 05:04 -0,2 C -1,6 C 90 % 1020,4 hPa 0,0 l/m 0 min 0 min 0,0 UV-I 0 W/m 5,1 km/h (1 Bft)
04.03.2013 05:06 -0,2 C -1,6 C 90 % 1020,4 hPa 0,0 l/m 0 min 0 min 0,0 UV-I 0 W/m 12,9 km/h (3 Bft)
04.03.2013 05:08 -0,3 C -1,6 C 90 % 1020,4 hPa 0,0 l/m 0 min 0 min 0,0 UV-I 0 W/m 5,1 km/h (1 Bft)
04.03.2013 05:10 -0,3 C -2,1 C 90 % 1020,4 hPa 0,0 l/m 0 min 0 min 0,0 UV-I 0 W/m 7,7 km/h (2 Bft)
04.03.2013 05:12 -0,3 C -2,1 C 90 % 1020,4 hPa 0,0 l/m 0 min 0 min 0,0 UV-I 0 W/m 7,7 km/h (2 Bft)
04.03.2013 05:14 -0,3 C -2,1 C 90 % 1020,4 hPa 0,0 l/m 0 min 0 min 0,0 UV-I 0 W/m 12,9 km/h (3 Bft)
04.03.2013 05:16 -0,3 C -2,1 C 90 % 1020,3 hPa 0,0 l/m 0 min 0 min 0,0 UV-I 0 W/m 5,1 km/h (1 Bft)
04.03.2013 05:18 -0,3 C -2,1 C 90 % 1020,2 hPa 0,0 l/m 0 min 0 min 0,0 UV-I 0 W/m 7,7 km/h (2 Bft)
04.03.2013 05:20 -0,3 C -2,1 C 90 % 1020,3 hPa 0,0 l/m 0 min 0 min 0,0 UV-I 0 W/m 10,3 km/h (2 Bft)
04.03.2013 05:22 -0,3 C -2,1 C 90 % 1020,3 hPa 0,0 l/m 0 min 0 min 0,0 UV-I 0 W/m 2,6 km/h (1 Bft)
04.03.2013 05:24 -0,3 C -2,1 C 90 % 1020,3 hPa 0,0 l/m 0 min 0 min 0,0 UV-I 0 W/m 10,3 km/h (2 Bft)
04.03.2013 05:26 -0,3 C -2,1 C 90 % 1020,2 hPa 0,0 l/m 0 min 0 min 0,0 UV-I 0 W/m 10,3 km/h (2 Bft)
04.03.2013 05:28 -0,3 C -2,1 C 90 % 1020,2 hPa 0,0 l/m 0 min 0 min 0,0 UV-I 0 W/m 10,3 km/h (2 Bft)
04.03.2013 05:30 -0,4 C -2,1 C 90 % 1020,2 hPa 0,0 l/m 0 min 0 min 0,0 UV-I 0 W/m 10,3 km/h (2 Bft)
04.03.2013 05:32 -0,4 C -2,1 C 90 % 1020,2 hPa 0,0 l/m 0 min 0 min 0,0 UV-I 0 W/m 7,7 km/h (2 Bft)
04.03.2013 05:34 -0,4 C -2,1 C 91 % 1020,1 hPa 0,0 l/m 0 min 0 min 0,0 UV-I 0 W/m 12,9 km/h (3 Bft)
04.03.2013 05:36 -0,4 C -2,1 C 90 % 1020,2 hPa 0,0 l/m 0 min 0 min 0,0 UV-I 0 W/m 12,9 km/h (3 Bft)
04.03.2013 05:38 -0,4 C -2,1 C 90 % 1020,2 hPa 0,0 l/m 0 min 0 min 0,0 UV-I 0 W/m 12,9 km/h (3 Bft)
04.03.2013 05:40 -0,4 C -2,1 C 90 % 1020,1 hPa 0,0 l/m 0 min 0 min 0,0 UV-I 0 W/m 10,3 km/h (2 Bft)
04.03.2013 05:42 -0,4 C -2,1 C 91 % 1020,1 hPa 0,0 l/m 0 min 0 min 0,0 UV-I 0 W/m 12,9 km/h (3 Bft)
04.03.2013 05:44 -0,4 C -2,1 C 91 % 1020,1 hPa 0,0 l/m 0 min 0 min 0,0 UV-I 0 W/m 12,9 km/h (3 Bft)
04.03.2013 05:46 -0,4 C -2,1 C 91 % 1020,1 hPa 0,0 l/m 0 min 0 min 0,0 UV-I 0 W/m 10,3 km/h (2 Bft)
04.03.2013 05:48 -0,4 C -2,1 C 91 % 1020,1 hPa 0,0 l/m 0 min 0 min 0,0 UV-I 0 W/m 15,4 km/h (3 Bft)
04.03.2013 05:50 -0,4 C -2,1 C 91 % 1020,1 hPa 0,0 l/m 0 min 0 min 0,0 UV-I 0 W/m 7,7 km/h (2 Bft)
04.03.2013 05:52 -0,4 C -2,1 C 91 % 1020,1 hPa 0,0 l/m 0 min 0 min 0,0 UV-I 0 W/m 7,7 km/h (2 Bft)
04.03.2013 05:54 -0,4 C -2,1 C 91 % 1020,1 hPa 0,0 l/m 0 min 0 min 0,0 UV-I 0 W/m 5,1 km/h (1 Bft)
04.03.2013 05:56 -0,4 C -2,1 C 91 % 1020,1 hPa 0,0 l/m 0 min 0 min 0,0 UV-I 0 W/m 7,7 km/h (2 Bft)
04.03.2013 05:58 -0,4 C -2,1 C 91 % 1020,0 hPa 0,0 l/m 0 min 0 min 0,0 UV-I 0 W/m 10,3 km/h (2 Bft)
04.03.2013 06:00 -0,4 C -2,1 C 91 % 1020,0 hPa 0,0 l/m 0 min 0 min 0,0 UV-I 0 W/m 10,3 km/h (2 Bft)
04.03.2013 06:02 -0,4 C -2,1 C 91 % 1020,0 hPa 0,0 l/m 0 min 0 min 0,0 UV-I 0 W/m 12,9 km/h (3 Bft)
04.03.2013 06:06 -0,4 C -2,1 C 91 % 1019,8 hPa 0,0 l/m 0 min 0 min 0,0 UV-I 0 W/m 12,9 km/h (3 Bft)
04.03.2013 06:08 -0,4 C -2,1 C 91 % 1019,9 hPa 0,0 l/m 0 min 0 min 0,0 UV-I 0 W/m 23,2 km/h (4 Bft)
04.03.2013 06:10 -0,4 C -2,1 C 91 % 1019,9 hPa 0,0 l/m 0 min 0 min 0,0 UV-I 0 W/m 5,1 km/h (1 Bft)
04.03.2013 06:12 -0,4 C -2,1 C 91 % 1019,9 hPa 0,0 l/m 0 min 0 min 0,0 UV-I 0 W/m 7,7 km/h (2 Bft)
04.03.2013 06:14 -0,4 C -2,1 C 91 % 1019,8 hPa 0,0 l/m 0 min 0 min 0,0 UV-I 0 W/m 5,1 km/h (1 Bft)
04.03.2013 06:16 -0,4 C -2,1 C 91 % 1019,8 hPa 0,0 l/m 0 min 0 min 0,0 UV-I 0 W/m 7,7 km/h (2 Bft)
04.03.2013 06:18 -0,5 C -2,1 C 91 % 1019,8 hPa 0,0 l/m 0 min 0 min 0,0 UV-I 0 W/m 5,1 km/h (1 Bft)
04.03.2013 06:20 -0,5 C -2,1 C 91 % 1019,7 hPa 0,0 l/m 0 min 0 min 0,0 UV-I 0 W/m 7,7 km/h (2 Bft)
04.03.2013 06:22 -0,5 C -2,1 C 91 % 1019,7 hPa 0,0 l/m 0 min 0 min 0,0 UV-I 0 W/m 7,7 km/h (2 Bft)
04.03.2013 06:24 -0,5 C -2,1 C 91 % 1019,6 hPa 0,0 l/m 0 min 0 min 0,0 UV-I 0 W/m 10,3 km/h (2 Bft)
04.03.2013 06:26 -0,5 C -2,1 C 91 % 1019,8 hPa 0,0 l/m 0 min 0 min 0,0 UV-I 0 W/m 7,7 km/h (2 Bft)
04.03.2013 06:28 -0,5 C -2,1 C 91 % 1019,7 hPa 0,0 l/m 0 min 0 min 0,0 UV-I 0 W/m 7,7 km/h (2 Bft)
04.03.2013 06:30 -0,6 C -2,1 C 91 % 1019,7 hPa 0,0 l/m 0 min 0 min 0,0 UV-I 0 W/m 10,3 km/h (2 Bft)
04.03.2013 06:32 -0,6 C -2,1 C 91 % 1019,7 hPa 0,0 l/m 0 min 0 min 0,0 UV-I 0 W/m 2,6 km/h (1 Bft)
04.03.2013 06:34 -0,6 C -2,1 C 91 % 1019,7 hPa 0,0 l/m 0 min 0 min 0,0 UV-I 0 W/m 0,0 km/h (0 Bft)
04.03.2013 06:36 -0,6 C -2,1 C 91 % 1019,5 hPa 0,0 l/m 0 min 0 min 0,0 UV-I 0 W/m 12,9 km/h (3 Bft)
04.03.2013 06:38 -0,6 C -2,1 C 91 % 1019,5 hPa 0,0 l/m 0 min 0 min 0,0 UV-I 0 W/m 10,3 km/h (2 Bft)
04.03.2013 06:40 -0,6 C -2,1 C 91 % 1019,5 hPa 0,0 l/m 0 min 0 min 0,0 UV-I 0 W/m 12,9 km/h (3 Bft)
04.03.2013 06:42 -0,6 C -2,1 C 91 % 1019,5 hPa 0,0 l/m 0 min 0 min 0,0 UV-I 0 W/m 10,3 km/h (2 Bft)
04.03.2013 06:44 -0,6 C -2,1 C 91 % 1019,7 hPa 0,0 l/m 0 min 0 min 0,0 UV-I 0 W/m 7,7 km/h (2 Bft)
04.03.2013 06:46 -0,6 C -2,1 C 91 % 1019,7 hPa 0,0 l/m 0 min 0 min 0,0 UV-I 0 W/m 10,3 km/h (2 Bft)
04.03.2013 06:48 -0,6 C -2,1 C 91 % 1019,5 hPa 0,0 l/m 0 min 0 min 0,0 UV-I 0 W/m 10,3 km/h (2 Bft)
04.03.2013 06:50 -0,6 C -2,1 C 91 % 1019,4 hPa 0,0 l/m 0 min 0 min 0,0 UV-I 0 W/m 10,3 km/h (2 Bft)
04.03.2013 06:52 -0,6 C -2,1 C 91 % 1019,4 hPa 0,0 l/m 0 min 0 min 0,0 UV-I 0 W/m 7,7 km/h (2 Bft)
04.03.2013 06:54 -0,6 C -2,1 C 91 % 1019,5 hPa 0,0 l/m 0 min 0 min 0,0 UV-I 0 W/m 12,9 km/h (3 Bft)
04.03.2013 06:56 -0,6 C -2,1 C 91 % 1019,4 hPa 0,0 l/m 0 min 0 min 0,0 UV-I 0 W/m 5,1 km/h (1 Bft)
04.03.2013 06:58 -0,6 C -2,1 C 91 % 1019,4 hPa 0,0 l/m 0 min 0 min 0,0 UV-I 0 W/m 7,7 km/h (2 Bft)
04.03.2013 07:00 -0,6 C -2,1 C 91 % 1019,4 hPa 0,0 l/m 0 min 0 min 0,0 UV-I 0 W/m 15,4 km/h (3 Bft)
04.03.2013 07:02 -0,6 C -2,1 C 91 % 1019,5 hPa 0,0 l/m 0 min 0 min 0,0 UV-I 0 W/m 12,9 km/h (3 Bft)
04.03.2013 07:04 -0,6 C -2,1 C 91 % 1019,5 hPa 0,0 l/m 0 min 0 min 0,0 UV-I 0 W/m 10,3 km/h (2 Bft)
04.03.2013 07:06 -0,6 C -2,1 C 91 % 1019,5 hPa 0,0 l/m 0 min 0 min 0,0 UV-I 0 W/m 12,9 km/h (3 Bft)
04.03.2013 07:08 -0,6 C -2,1 C 91 % 1019,4 hPa 0,0 l/m 0 min 0 min 0,0 UV-I 0 W/m 5,1 km/h (1 Bft)
04.03.2013 07:10 -0,6 C -2,1 C 91 % 1019,4 hPa 0,0 l/m 0 min 0 min 0,0 UV-I 0 W/m 18,0 km/h (3 Bft)
04.03.2013 07:12 -0,6 C -2,1 C 91 % 1019,5 hPa 0,0 l/m 0 min 0 min 0,0 UV-I 0 W/m 7,7 km/h (2 Bft)
04.03.2013 07:14 -0,6 C -2,1 C 91 % 1019,5 hPa 0,0 l/m 0 min 0 min 0,0 UV-I 5 W/m 10,3 km/h (2 Bft)
04.03.2013 07:16 -0,6 C -2,1 C 91 % 1019,5 hPa 0,0 l/m 0 min 0 min 0,0 UV-I 5 W/m 10,3 km/h (2 Bft)
04.03.2013 07:18 -0,5 C -2,1 C 91 % 1019,6 hPa 0,0 l/m 0 min 0 min 0,0 UV-I 5 W/m 12,9 km/h (3 Bft)
04.03.2013 07:20 -0,5 C -2,1 C 91 % 1019,6 hPa 0,0 l/m 0 min 0 min 0,0 UV-I 7 W/m 0,0 km/h (0 Bft)
04.03.2013 07:22 -0,5 C -2,1 C 91 % 1019,6 hPa 0,0 l/m 0 min 0 min 0,0 UV-I 7 W/m 5,1 km/h (1 Bft)
04.03.2013 07:24 -0,5 C -2,1 C 91 % 1019,5 hPa 0,0 l/m 0 min 0 min 0,0 UV-I 7 W/m 0,0 km/h (0 Bft)
04.03.2013 07:26 -0,5 C -2,1 C 91 % 1019,5 hPa 0,0 l/m 0 min 0 min 0,0 UV-I 9 W/m 5,1 km/h (1 Bft)
04.03.2013 07:28 -0,5 C -2,1 C 91 % 1019,5 hPa 0,0 l/m 0 min 0 min 0,0 UV-I 9 W/m 15,4 km/h (3 Bft)
04.03.2013 07:30 -0,5 C -2,1 C 91 % 1019,6 hPa 0,0 l/m 0 min 0 min 0,0 UV-I 11 W/m 5,1 km/h (1 Bft)
04.03.2013 07:32 -0,5 C -2,1 C 91 % 1019,5 hPa 0,0 l/m 0 min 0 min 0,0 UV-I 11 W/m 15,4 km/h (3 Bft)
04.03.2013 07:34 -0,5 C -2,1 C 91 % 1019,8 hPa 0,0 l/m 0 min 0 min 0,0 UV-I 12 W/m 10,3 km/h (2 Bft)
04.03.2013 07:36 -0,5 C -1,6 C 91 % 1019,8 hPa 0,0 l/m 0 min 0 min 0,0 UV-I 12 W/m 12,9 km/h (3 Bft)
04.03.2013 07:38 -0,5 C -1,6 C 91 % 1019,8 hPa 0,0 l/m 0 min 0 min 0,0 UV-I 14 W/m 7,7 km/h (2 Bft)
04.03.2013 07:40 -0,5 C -1,6 C 91 % 1019,6 hPa 0,0 l/m 0 min 0 min 0,0 UV-I 14 W/m 5,1 km/h (1 Bft)
04.03.2013 07:42 -0,4 C -1,6 C 91 % 1019,6 hPa 0,0 l/m 0 min 0 min 0,0 UV-I 16 W/m 7,7 km/h (2 Bft)
04.03.2013 07:44 -0,4 C -1,6 C 91 % 1019,6 hPa 0,0 l/m 0 min 0 min 0,0 UV-I 16 W/m 15,4 km/h (3 Bft)
04.03.2013 07:46 -0,4 C -1,6 C 91 % 1019,6 hPa 0,0 l/m 0 min 0 min 0,0 UV-I 18 W/m 20,6 km/h (4 Bft)
04.03.2013 07:48 -0,4 C -1,6 C 91 % 1019,5 hPa 0,0 l/m 0 min 0 min 0,0 UV-I 18 W/m 12,9 km/h (3 Bft)
04.03.2013 07:50 -0,4 C -1,6 C 91 % 1019,5 hPa 0,0 l/m 0 min 0 min 0,0 UV-I 18 W/m 15,4 km/h (3 Bft)
04.03.2013 07:52 -0,3 C -1,6 C 91 % 1019,6 hPa 0,0 l/m 0 min 0 min 0,0 UV-I 19 W/m 2,6 km/h (1 Bft)
04.03.2013 07:54 -0,3 C -1,6 C 91 % 1019,4 hPa 0,0 l/m 0 min 0 min 0,0 UV-I 19 W/m 20,6 km/h (4 Bft)
04.03.2013 07:56 -0,3 C -1,6 C 91 % 1019,5 hPa 0,0 l/m 0 min 0 min 0,0 UV-I 21 W/m 10,3 km/h (2 Bft)
04.03.2013 07:58 -0,3 C -1,6 C 91 % 1019,4 hPa 0,0 l/m 0 min 0 min 0,0 UV-I 21 W/m 7,7 km/h (2 Bft)
04.03.2013 08:00 -0,3 C -1,6 C 91 % 1019,4 hPa 0,0 l/m 0 min 0 min 0,0 UV-I 21 W/m 12,9 km/h (3 Bft)
04.03.2013 08:02 -0,3 C -1,0 C 91 % 1019,4 hPa 0,0 l/m 0 min 0 min 0,0 UV-I 23 W/m 18,0 km/h (3 Bft)
04.03.2013 08:04 -0,3 C -1,0 C 91 % 1019,5 hPa 0,0 l/m 0 min 0 min 0,0 UV-I 23 W/m 18,0 km/h (3 Bft)
04.03.2013 08:06 -0,2 C -1,0 C 91 % 1019,5 hPa 0,0 l/m 0 min 0 min 0,0 UV-I 23 W/m 12,9 km/h (3 Bft)
04.03.2013 08:08 -0,2 C -1,0 C 91 % 1019,5 hPa 0,0 l/m 0 min 0 min 0,0 UV-I 25 W/m 12,9 km/h (3 Bft)
04.03.2013 08:10 -0,2 C -1,0 C 91 % 1019,7 hPa 0,0 l/m 0 min 0 min 0,0 UV-I 25 W/m 10,3 km/h (2 Bft)
04.03.2013 08:12 -0,1 C -1,0 C 91 % 1019,6 hPa 0,0 l/m 0 min 0 min 0,0 UV-I 25 W/m 12,9 km/h (3 Bft)
04.03.2013 08:14 -0,1 C -1,0 C 91 % 1019,6 hPa 0,0 l/m 0 min 0 min 0,0 UV-I 26 W/m 12,9 km/h (3 Bft)
04.03.2013 08:16 -0,1 C -1,0 C 91 % 1019,6 hPa 0,0 l/m 0 min 0 min 0,0 UV-I 26 W/m 20,6 km/h (4 Bft)
04.03.2013 08:18 0,0 C -1,0 C 91 % 1019,6 hPa 0,0 l/m 0 min 0 min 0,0 UV-I 26 W/m 12,9 km/h (3 Bft)
04.03.2013 08:20 0,1 C -1,0 C 90 % 1019,7 hPa 0,0 l/m 0 min 0 min 0,0 UV-I 26 W/m 12,9 km/h (3 Bft)
04.03.2013 08:22 0,1 C -1,0 C 90 % 1019,7 hPa 0,0 l/m 0 min 0 min 0,0 UV-I 28 W/m 15,4 km/h (3 Bft)
04.03.2013 08:24 0,2 C -1,0 C 90 % 1019,7 hPa 0,0 l/m 0 min 0 min 0,0 UV-I 28 W/m 18,0 km/h (3 Bft)
04.03.2013 08:26 0,2 C -0,4 C 90 % 1019,6 hPa 0,0 l/m 0 min 0 min 0,0 UV-I 28 W/m 7,7 km/h (2 Bft)
04.03.2013 08:28 0,2 C -0,4 C 90 % 1019,6 hPa 0,0 l/m 0 min 0 min 0,0 UV-I 30 W/m 18,0 km/h (3 Bft)
04.03.2013 08:30 0,3 C -0,4 C 90 % 1019,6 hPa 0,0 l/m 0 min 0 min 0,0 UV-I 30 W/m 12,9 km/h (3 Bft)
04.03.2013 08:32 0,3 C -0,4 C 90 % 1019,7 hPa 0,0 l/m 0 min 0 min 0,0 UV-I 30 W/m 15,4 km/h (3 Bft)
04.03.2013 08:34 0,3 C -0,4 C 90 % 1019,7 hPa 0,0 l/m 0 min 0 min 0,0 UV-I 33 W/m 15,4 km/h (3 Bft)
04.03.2013 08:36 0,4 C -0,4 C 90 % 1019,6 hPa 0,0 l/m 0 min 0 min 0,0 UV-I 33 W/m 10,3 km/h (2 Bft)
04.03.2013 08:38 0,4 C -0,4 C 90 % 1019,7 hPa 0,0 l/m 0 min 0 min 0,0 UV-I 33 W/m 10,3 km/h (2 Bft)
04.03.2013 08:40 0,5 C -0,4 C 90 % 1019,6 hPa 0,0 l/m 0 min 0 min 0,0 UV-I 33 W/m 20,6 km/h (4 Bft)
04.03.2013 08:42 0,6 C -0,4 C 89 % 1019,6 hPa 0,0 l/m 0 min 0 min 0,0 UV-I 33 W/m 18,0 km/h (3 Bft)
04.03.2013 08:44 0,6 C -0,4 C 89 % 1019,6 hPa 0,0 l/m 0 min 0 min 0,0 UV-I 33 W/m 12,9 km/h (3 Bft)
04.03.2013 08:46 0,7 C -0,4 C 89 % 1019,6 hPa 0,0 l/m 0 min 0 min 0,0 UV-I 39 W/m 20,6 km/h (4 Bft)
04.03.2013 08:48 0,7 C 0,1 C 89 % 1019,5 hPa 0,0 l/m 0 min 0 min 0,0 UV-I 42 W/m 18,0 km/h (3 Bft)
04.03.2013 08:50 0,8 C 0,1 C 88 % 1019,5 hPa 0,0 l/m 0 min 0 min 0,0 UV-I 37 W/m 12,9 km/h (3 Bft)
04.03.2013 08:52 0,8 C 0,1 C 88 % 1019,6 hPa 0,0 l/m 0 min 0 min 0,0 UV-I 47 W/m 23,2 km/h (4 Bft)
04.03.2013 08:54 0,9 C 0,1 C 88 % 1019,6 hPa 0,0 l/m 0 min 0 min 0,0 UV-I 116 W/m 10,3 km/h (2 Bft)
04.03.2013 08:56 0,9 C 0,1 C 88 % 1019,6 hPa 0,0 l/m 2 min 0 min 0,0 UV-I 146 W/m 20,6 km/h (4 Bft)
04.03.2013 08:58 1,0 C 0,1 C 88 % 1019,7 hPa 0,0 l/m 2 min 0 min 0,0 UV-I 169 W/m 18,0 km/h (3 Bft)
04.03.2013 09:00 1,1 C 0,1 C 88 % 1019,6 hPa 0,0 l/m 2 min 0 min 0,0 UV-I 192 W/m 12,9 km/h (3 Bft)
04.03.2013 09:02 1,1 C 0,1 C 88 % 1019,6 hPa 0,0 l/m 2 min 0 min 0,0 UV-I 197 W/m 20,6 km/h (4 Bft)
04.03.2013 09:06 1,3 C 0,1 C 87 % 1019,5 hPa 0,0 l/m 2 min 0 min 0,0 UV-I 206 W/m 20,6 km/h (4 Bft)
04.03.2013 09:08 1,3 C 0,7 C 87 % 1019,5 hPa 0,0 l/m 2 min 0 min 0,0 UV-I 213 W/m 28,3 km/h (4 Bft)
04.03.2013 09:10 1,4 C 0,7 C 87 % 1019,5 hPa 0,0 l/m 2 min 0 min 0,0 UV-I 216 W/m 20,6 km/h (4 Bft)
04.03.2013 09:12 1,5 C 0,7 C 87 % 1019,5 hPa 0,0 l/m 2 min 0 min 0,0 UV-I 220 W/m 18,0 km/h (3 Bft)
04.03.2013 09:14 1,7 C 0,7 C 86 % 1019,5 hPa 0,0 l/m 2 min 0 min 0,0 UV-I 227 W/m 18,0 km/h (3 Bft)
04.03.2013 09:16 1,8 C 0,7 C 86 % 1019,6 hPa 0,0 l/m 2 min 0 min 0,0 UV-I 232 W/m 18,0 km/h (3 Bft)
04.03.2013 09:18 1,9 C 0,7 C 85 % 1019,5 hPa 0,0 l/m 2 min 0 min 0,0 UV-I 236 W/m 20,6 km/h (4 Bft)
04.03.2013 09:20 2,0 C 0,7 C 85 % 1019,6 hPa 0,0 l/m 2 min 0 min 0,0 UV-I 241 W/m 25,7 km/h (4 Bft)
04.03.2013 09:22 2,1 C 0,7 C 85 % 1019,5 hPa 0,0 l/m 2 min 0 min 0,0 UV-I 246 W/m 23,2 km/h (4 Bft)
04.03.2013 09:24 2,2 C 0,7 C 84 % 1019,5 hPa 0,0 l/m 2 min 0 min 0,0 UV-I 248 W/m 20,6 km/h (4 Bft)
04.03.2013 09:26 2,3 C 0,7 C 84 % 1019,5 hPa 0,0 l/m 2 min 0 min 0,0 UV-I 255 W/m 20,6 km/h (4 Bft)
04.03.2013 09:28 2,4 C 0,7 C 84 % 1019,5 hPa 0,0 l/m 2 min 0 min 0,0 UV-I 260 W/m 25,7 km/h (4 Bft)
04.03.2013 09:30 2,5 C 1,2 C 83 % 1019,4 hPa 0,0 l/m 2 min 0 min 0,0 UV-I 264 W/m 15,4 km/h (3 Bft)
04.03.2013 09:32 2,7 C 1,2 C 83 % 1019,5 hPa 0,0 l/m 2 min 0 min 0,0 UV-I 271 W/m 20,6 km/h (4 Bft)
04.03.2013 09:34 2,7 C 1,2 C 82 % 1019,4 hPa 0,0 l/m 2 min 0 min 0,0 UV-I 272 W/m 25,7 km/h (4 Bft)
04.03.2013 09:36 2,8 C 1,2 C 82 % 1019,5 hPa 0,0 l/m 2 min 0 min 0,0 UV-I 276 W/m 20,6 km/h (4 Bft)
04.03.2013 09:38 2,8 C 1,2 C 81 % 1019,4 hPa 0,0 l/m 2 min 0 min 0,0 UV-I 279 W/m 23,2 km/h (4 Bft)
04.03.2013 09:40 2,9 C 1,2 C 81 % 1019,4 hPa 0,0 l/m 2 min 0 min 0,0 UV-I 283 W/m 23,2 km/h (4 Bft)
04.03.2013 09:42 3,0 C 1,2 C 81 % 1019,4 hPa 0,0 l/m 2 min 0 min 0,0 UV-I 290 W/m 7,7 km/h (2 Bft)
04.03.2013 09:44 3,1 C 1,8 C 81 % 1019,4 hPa 0,0 l/m 2 min 0 min 0,0 UV-I 294 W/m 15,4 km/h (3 Bft)
04.03.2013 09:46 3,2 C 1,8 C 81 % 1019,4 hPa 0,0 l/m 2 min 0 min 0,0 UV-I 299 W/m 18,0 km/h (3 Bft)
04.03.2013 09:48 3,2 C 1,8 C 81 % 1019,3 hPa 0,0 l/m 2 min 0 min 0,0 UV-I 304 W/m 12,9 km/h (3 Bft)
04.03.2013 09:50 3,3 C 1,8 C 81 % 1019,4 hPa 0,0 l/m 2 min 0 min 0,0 UV-I 309 W/m 15,4 km/h (3 Bft)
04.03.2013 09:52 3,4 C 1,8 C 80 % 1019,5 hPa 0,0 l/m 2 min 0 min 0,0 UV-I 311 W/m 20,6 km/h (4 Bft)
04.03.2013 09:54 3,4 C 1,8 C 80 % 1019,5 hPa 0,0 l/m 2 min 0 min 0,0 UV-I 316 W/m 10,3 km/h (2 Bft)
04.03.2013 09:56 3,5 C 2,3 C 80 % 1019,3 hPa 0,0 l/m 2 min 0 min 0,0 UV-I 322 W/m 23,2 km/h (4 Bft)
04.03.2013 09:58 3,6 C 2,3 C 79 % 1019,4 hPa 0,0 l/m 2 min 0 min 0,0 UV-I 323 W/m 18,0 km/h (3 Bft)
04.03.2013 10:00 3,6 C 2,3 C 79 % 1019,3 hPa 0,0 l/m 2 min 0 min 0,0 UV-I 330 W/m 18,0 km/h (3 Bft)
04.03.2013 10:02 3,7 C 2,3 C 79 % 1019,3 hPa 0,0 l/m 2 min 0 min 0,0 UV-I 336 W/m 15,4 km/h (3 Bft)
04.03.2013 10:04 3,7 C 2,3 C 79 % 1019,3 hPa 0,0 l/m 2 min 0 min 0,0 UV-I 339 W/m 28,3 km/h (4 Bft)
04.03.2013 10:06 3,8 C 2,3 C 78 % 1019,3 hPa 0,0 l/m 2 min 0 min 0,0 UV-I 339 W/m 25,7 km/h (4 Bft)
04.03.2013 10:08 3,9 C 2,3 C 78 % 1019,4 hPa 0,0 l/m 2 min 0 min 0,0 UV-I 348 W/m 18,0 km/h (3 Bft)
04.03.2013 10:10 3,9 C 2,9 C 78 % 1019,4 hPa 0,0 l/m 2 min 0 min 0,0 UV-I 350 W/m 15,4 km/h (3 Bft)
04.03.2013 10:12 4,1 C 2,9 C 78 % 1019,2 hPa 0,0 l/m 2 min 0 min 0,0 UV-I 355 W/m 33,5 km/h (5 Bft)
04.03.2013 10:14 4,1 C 2,9 C 78 % 1019,1 hPa 0,0 l/m 2 min 0 min 0,0 UV-I 359 W/m 25,7 km/h (4 Bft)
04.03.2013 10:16 4,2 C 2,9 C 77 % 1019,2 hPa 0,0 l/m 2 min 0 min 0,0 UV-I 362 W/m 23,2 km/h (4 Bft)
04.03.2013 10:18 4,3 C 2,9 C 77 % 1019,2 hPa 0,0 l/m 2 min 0 min 0,0 UV-I 369 W/m 25,7 km/h (4 Bft)
04.03.2013 10:20 4,3 C 3,4 C 77 % 1019,1 hPa 0,0 l/m 2 min 0 min 0,0 UV-I 373 W/m 12,9 km/h (3 Bft)
04.03.2013 10:22 4,4 C 3,4 C 77 % 1019,1 hPa 0,0 l/m 2 min 0 min 0,0 UV-I 373 W/m 23,2 km/h (4 Bft)
04.03.2013 10:24 4,6 C 3,4 C 76 % 1019,1 hPa 0,0 l/m 2 min 0 min 0,0 UV-I 376 W/m 23,2 km/h (4 Bft)
04.03.2013 10:26 4,6 C 3,4 C 76 % 1019,3 hPa 0,0 l/m 2 min 0 min 0,5 UV-I 385 W/m 15,4 km/h (3 Bft)
04.03.2013 10:28 4,7 C 3,4 C 76 % 1019,2 hPa 0,0 l/m 2 min 0 min 0,5 UV-I 385 W/m 28,3 km/h (4 Bft)
04.03.2013 10:30 4,7 C 3,4 C 76 % 1019,1 hPa 0,0 l/m 2 min 0 min 0,5 UV-I 390 W/m 20,6 km/h (4 Bft)
04.03.2013 10:32 4,8 C 3,4 C 76 % 1019,0 hPa 0,0 l/m 2 min 0 min 0,5 UV-I 396 W/m 20,6 km/h (4 Bft)
04.03.2013 10:34 4,8 C 3,4 C 75 % 1019,0 hPa 0,0 l/m 2 min 0 min 0,5 UV-I 399 W/m 23,2 km/h (4 Bft)
04.03.2013 10:36 4,9 C 4,0 C 75 % 1019,0 hPa 0,0 l/m 2 min 0 min 0,5 UV-I 399 W/m 25,7 km/h (4 Bft)
04.03.2013 10:38 5,0 C 4,0 C 75 % 1019,0 hPa 0,0 l/m 2 min 0 min 0,6 UV-I 404 W/m 23,2 km/h (4 Bft)
04.03.2013 10:40 5,1 C 4,0 C 75 % 1019,0 hPa 0,0 l/m 2 min 0 min 0,6 UV-I 410 W/m 12,9 km/h (3 Bft)
04.03.2013 10:42 5,1 C 4,0 C 75 % 1019,1 hPa 0,0 l/m 2 min 0 min 0,6 UV-I 413 W/m 23,2 km/h (4 Bft)
04.03.2013 10:44 5,2 C 4,0 C 74 % 1019,1 hPa 0,0 l/m 2 min 0 min 0,6 UV-I 415 W/m 20,6 km/h (4 Bft)
04.03.2013 10:46 5,2 C 4,0 C 74 % 1019,0 hPa 0,0 l/m 2 min 0 min 0,6 UV-I 418 W/m 20,6 km/h (4 Bft)
04.03.2013 10:48 5,3 C 4,0 C 74 % 1019,0 hPa 0,0 l/m 2 min 0 min 0,7 UV-I 422 W/m 23,2 km/h (4 Bft)
04.03.2013 10:50 5,3 C 4,0 C 74 % 1018,8 hPa 0,0 l/m 2 min 0 min 0,7 UV-I 425 W/m 20,6 km/h (4 Bft)
04.03.2013 10:52 5,4 C 4,0 C 74 % 1018,7 hPa 0,0 l/m 2 min 0 min 0,7 UV-I 427 W/m 20,6 km/h (4 Bft)
04.03.2013 10:54 5,4 C 4,6 C 74 % 1018,8 hPa 0,0 l/m 2 min 0 min 0,7 UV-I 431 W/m 18,0 km/h (3 Bft)
04.03.2013 10:56 5,6 C 4,6 C 73 % 1018,7 hPa 0,0 l/m 2 min 0 min 0,7 UV-I 434 W/m 23,2 km/h (4 Bft)
04.03.2013 10:58 5,6 C 4,6 C 73 % 1018,9 hPa 0,0 l/m 2 min 0 min 0,8 UV-I 438 W/m 30,9 km/h (5 Bft)
04.03.2013 11:00 5,7 C 4,6 C 73 % 1018,9 hPa 0,0 l/m 2 min 0 min 0,8 UV-I 441 W/m 23,2 km/h (4 Bft)
04.03.2013 11:02 5,7 C 4,6 C 72 % 1018,9 hPa 0,0 l/m 2 min 0 min 0,8 UV-I 443 W/m 18,0 km/h (3 Bft)
04.03.2013 11:04 5,8 C 4,6 C 72 % 1018,8 hPa 0,0 l/m 2 min 0 min 0,8 UV-I 445 W/m 20,6 km/h (4 Bft)
04.03.2013 11:06 5,8 C 4,6 C 72 % 1018,8 hPa 0,0 l/m 2 min 0 min 0,8 UV-I 452 W/m 28,3 km/h (4 Bft)
04.03.2013 11:08 5,8 C 4,6 C 72 % 1018,8 hPa 0,0 l/m 2 min 0 min 0,8 UV-I 454 W/m 25,7 km/h (4 Bft)
04.03.2013 11:10 5,9 C 5,1 C 73 % 1018,8 hPa 0,0 l/m 2 min 0 min 0,9 UV-I 457 W/m 30,9 km/h (5 Bft)
04.03.2013 11:12 6,0 C 5,1 C 72 % 1018,8 hPa 0,0 l/m 2 min 0 min 0,9 UV-I 457 W/m 23,2 km/h (4 Bft)
04.03.2013 11:14 6,1 C 5,1 C 72 % 1018,6 hPa 0,0 l/m 2 min 0 min 0,9 UV-I 462 W/m 36,0 km/h (5 Bft)
04.03.2013 11:16 6,2 C 5,1 C 72 % 1018,7 hPa 0,0 l/m 2 min 0 min 0,9 UV-I 464 W/m 23,2 km/h (4 Bft)
04.03.2013 11:18 6,3 C 5,1 C 72 % 1018,6 hPa 0,0 l/m 2 min 0 min 0,9 UV-I 468 W/m 20,6 km/h (4 Bft)
04.03.2013 11:20 6,3 C 5,1 C 71 % 1018,6 hPa 0,0 l/m 2 min 0 min 0,9 UV-I 471 W/m 30,9 km/h (5 Bft)
04.03.2013 11:22 6,4 C 5,7 C 71 % 1018,6 hPa 0,0 l/m 2 min 0 min 1,0 UV-I 471 W/m 20,6 km/h (4 Bft)
04.03.2013 11:24 6,5 C 5,7 C 71 % 1018,6 hPa 0,0 l/m 2 min 0 min 1,0 UV-I 476 W/m 38,6 km/h (5 Bft)
04.03.2013 11:26 6,6 C 5,7 C 70 % 1018,4 hPa 0,0 l/m 2 min 0 min 1,0 UV-I 478 W/m 28,3 km/h (4 Bft)
04.03.2013 11:28 6,6 C 5,7 C 70 % 1018,3 hPa 0,0 l/m 2 min 0 min 1,0 UV-I 482 W/m 23,2 km/h (4 Bft)
04.03.2013 11:30 6,7 C 5,7 C 71 % 1018,3 hPa 0,0 l/m 2 min 0 min 1,0 UV-I 483 W/m 18,0 km/h (3 Bft)
04.03.2013 11:32 6,8 C 5,7 C 70 % 1018,5 hPa 0,0 l/m 2 min 0 min 1,0 UV-I 487 W/m 23,2 km/h (4 Bft)
04.03.2013 11:34 6,9 C 5,7 C 70 % 1018,4 hPa 0,0 l/m 2 min 0 min 1,0 UV-I 490 W/m 28,3 km/h (4 Bft)
04.03.2013 11:36 7,0 C 6,2 C 69 % 1018,4 hPa 0,0 l/m 2 min 0 min 1,1 UV-I 490 W/m 28,3 km/h (4 Bft)
04.03.2013 11:38 7,1 C 6,2 C 69 % 1018,4 hPa 0,0 l/m 2 min 0 min 1,1 UV-I 496 W/m 30,9 km/h (5 Bft)
04.03.2013 11:40 7,1 C 6,2 C 68 % 1018,4 hPa 0,0 l/m 2 min 0 min 1,1 UV-I 496 W/m 20,6 km/h (4 Bft)
04.03.2013 11:42 7,2 C 6,2 C 68 % 1018,4 hPa 0,0 l/m 2 min 0 min 1,1 UV-I 497 W/m 25,7 km/h (4 Bft)
04.03.2013 11:44 7,2 C 6,2 C 69 % 1018,4 hPa 0,0 l/m 2 min 0 min 1,1 UV-I 497 W/m 28,3 km/h (4 Bft)
04.03.2013 11:46 7,3 C 6,2 C 68 % 1018,5 hPa 0,0 l/m 2 min 0 min 1,1 UV-I 497 W/m 33,5 km/h (5 Bft)
04.03.2013 11:48 7,3 C 6,2 C 68 % 1018,4 hPa 0,0 l/m 2 min 0 min 1,1 UV-I 503 W/m 23,2 km/h (4 Bft)
04.03.2013 11:50 7,4 C 6,2 C 67 % 1018,3 hPa 0,0 l/m 2 min 0 min 1,1 UV-I 499 W/m 30,9 km/h (5 Bft)
04.03.2013 11:52 7,4 C 6,2 C 66 % 1018,4 hPa 0,0 l/m 2 min 0 min 1,2 UV-I 503 W/m 36,0 km/h (5 Bft)
04.03.2013 11:54 7,4 C 6,2 C 67 % 1018,4 hPa 0,0 l/m 2 min 0 min 1,2 UV-I 504 W/m 41,2 km/h (6 Bft)
04.03.2013 11:56 7,4 C 6,2 C 66 % 1018,5 hPa 0,0 l/m 2 min 0 min 1,2 UV-I 508 W/m 28,3 km/h (4 Bft)
04.03.2013 11:58 7,5 C 6,2 C 66 % 1018,5 hPa 0,0 l/m 2 min 0 min 1,2 UV-I 508 W/m 41,2 km/h (6 Bft)
04.03.2013 12:00 7,5 C 6,2 C 66 % 1018,5 hPa 0,0 l/m 2 min 0 min 1,2 UV-I 513 W/m 23,2 km/h (4 Bft)
04.03.2013 12:02 7,6 C 6,8 C 66 % 1018,5 hPa 0,0 l/m 2 min 0 min 1,2 UV-I 513 W/m 25,7 km/h (4 Bft)
04.03.2013 12:06 7,7 C 6,8 C 66 % 1018,4 hPa 0,0 l/m 2 min 0 min 1,2 UV-I 517 W/m 23,2 km/h (4 Bft)
04.03.2013 12:08 7,8 C 6,8 C 66 % 1018,3 hPa 0,0 l/m 2 min 0 min 1,2 UV-I 519 W/m 20,6 km/h (4 Bft)
04.03.2013 12:10 7,9 C 7,3 C 66 % 1018,4 hPa 0,0 l/m 2 min 0 min 1,2 UV-I 524 W/m 18,0 km/h (3 Bft)
04.03.2013 12:12 8,1 C 6,8 C 66 % 1018,3 hPa 0,0 l/m 2 min 0 min 1,3 UV-I 527 W/m 23,2 km/h (4 Bft)
04.03.2013 12:14 8,2 C 6,8 C 66 % 1018,3 hPa 0,0 l/m 2 min 0 min 1,3 UV-I 522 W/m 15,4 km/h (3 Bft)
04.03.2013 12:16 8,3 C 7,3 C 66 % 1018,3 hPa 0,0 l/m 2 min 0 min 1,3 UV-I 527 W/m 23,2 km/h (4 Bft)
04.03.2013 12:18 8,4 C 7,3 C 65 % 1018,3 hPa 0,0 l/m 2 min 0 min 1,3 UV-I 526 W/m 28,3 km/h (4 Bft)
04.03.2013 12:20 8,4 C 6,8 C 64 % 1018,2 hPa 0,0 l/m 2 min 0 min 1,3 UV-I 524 W/m 20,6 km/h (4 Bft)
04.03.2013 12:22 8,5 C 7,3 C 64 % 1018,2 hPa 0,0 l/m 2 min 0 min 1,3 UV-I 529 W/m 20,6 km/h (4 Bft)
04.03.2013 12:24 8,6 C 7,3 C 63 % 1018,1 hPa 0,0 l/m 2 min 0 min 1,3 UV-I 531 W/m 18,0 km/h (3 Bft)
04.03.2013 12:26 8,6 C 7,3 C 63 % 1018,0 hPa 0,0 l/m 2 min 0 min 1,3 UV-I 531 W/m 33,5 km/h (5 Bft)
04.03.2013 12:28 8,6 C 7,3 C 63 % 1018,1 hPa 0,0 l/m 2 min 0 min 1,3 UV-I 534 W/m 25,7 km/h (4 Bft)
04.03.2013 12:30 8,6 C 7,3 C 62 % 1018,0 hPa 0,0 l/m 2 min 0 min 1,3 UV-I 534 W/m 43,8 km/h (6 Bft)
04.03.2013 12:32 8,6 C 7,3 C 62 % 1017,9 hPa 0,0 l/m 2 min 0 min 1,3 UV-I 531 W/m 23,2 km/h (4 Bft)
04.03.2013 12:34 8,6 C 7,3 C 62 % 1017,9 hPa 0,0 l/m 2 min 0 min 1,3 UV-I 534 W/m 33,5 km/h (5 Bft)
04.03.2013 12:36 8,7 C 7,3 C 63 % 1017,9 hPa 0,0 l/m 2 min 0 min 1,3 UV-I 533 W/m 20,6 km/h (4 Bft)
04.03.2013 12:38 8,8 C 7,3 C 63 % 1017,8 hPa 0,0 l/m 2 min 0 min 1,3 UV-I 533 W/m 28,3 km/h (4 Bft)
04.03.2013 12:40 8,8 C 7,3 C 62 % 1017,8 hPa 0,0 l/m 2 min 0 min 1,3 UV-I 536 W/m 36,0 km/h (5 Bft)
04.03.2013 12:42 8,8 C 7,3 C 61 % 1017,8 hPa 0,0 l/m 2 min 0 min 1,3 UV-I 536 W/m 30,9 km/h (5 Bft)
04.03.2013 12:44 8,8 C 7,3 C 62 % 1017,9 hPa 0,0 l/m 2 min 0 min 1,3 UV-I 534 W/m 20,6 km/h (4 Bft)
04.03.2013 12:46 8,9 C 7,9 C 62 % 1017,8 hPa 0,0 l/m 2 min 0 min 1,3 UV-I 533 W/m 18,0 km/h (3 Bft)
04.03.2013 12:48 9,0 C 7,9 C 64 % 1017,8 hPa 0,0 l/m 2 min 0 min 1,3 UV-I 538 W/m 12,9 km/h (3 Bft)
04.03.2013 12:50 9,1 C 7,9 C 62 % 1017,8 hPa 0,0 l/m 2 min 0 min 1,3 UV-I 536 W/m 25,7 km/h (4 Bft)
04.03.2013 12:52 9,2 C 7,9 C 61 % 1017,8 hPa 0,0 l/m 2 min 0 min 1,3 UV-I 538 W/m 25,7 km/h (4 Bft)
04.03.2013 12:54 9,2 C 7,3 C 60 % 1017,8 hPa 0,0 l/m 2 min 0 min 1,3 UV-I 538 W/m 28,3 km/h (4 Bft)
04.03.2013 12:56 9,2 C 7,3 C 61 % 1017,7 hPa 0,0 l/m 2 min 0 min 1,3 UV-I 538 W/m 25,7 km/h (4 Bft)
04.03.2013 12:58 9,2 C 7,3 C 61 % 1017,7 hPa 0,0 l/m 2 min 0 min 1,3 UV-I 538 W/m 20,6 km/h (4 Bft)
04.03.2013 13:00 9,3 C 7,9 C 62 % 1017,7 hPa 0,0 l/m 2 min 0 min 1,3 UV-I 536 W/m 18,0 km/h (3 Bft)
04.03.2013 13:02 9,4 C 7,9 C 62 % 1017,7 hPa 0,0 l/m 2 min 0 min 1,3 UV-I 538 W/m 10,3 km/h (2 Bft)
04.03.2013 13:04 9,5 C 8,4 C 62 % 1017,6 hPa 0,0 l/m 2 min 0 min 1,3 UV-I 536 W/m 7,7 km/h (2 Bft)
04.03.2013 13:06 9,6 C 8,4 C 60 % 1017,6 hPa 0,0 l/m 2 min 0 min 1,3 UV-I 536 W/m 25,7 km/h (4 Bft)
04.03.2013 13:08 9,7 C 8,4 C 59 % 1017,6 hPa 0,0 l/m 2 min 0 min 1,3 UV-I 533 W/m 25,7 km/h (4 Bft)
04.03.2013 13:10 9,7 C 8,4 C 60 % 1017,5 hPa 0,0 l/m 2 min 0 min 1,3 UV-I 538 W/m 15,4 km/h (3 Bft)
04.03.2013 13:12 9,8 C 8,4 C 59 % 1017,5 hPa 0,0 l/m 2 min 0 min 1,3 UV-I 538 W/m 23,2 km/h (4 Bft)
04.03.2013 13:14 9,9 C 8,4 C 59 % 1017,3 hPa 0,0 l/m 2 min 0 min 1,3 UV-I 534 W/m 20,6 km/h (4 Bft)
04.03.2013 13:16 10,0 C 8,4 C 59 % 1017,2 hPa 0,0 l/m 2 min 0 min 1,3 UV-I 536 W/m 20,6 km/h (4 Bft)
04.03.2013 13:18 10,1 C 8,4 C 58 % 1017,2 hPa 0,0 l/m 2 min 0 min 1,3 UV-I 533 W/m 10,3 km/h (2 Bft)
04.03.2013 13:20 10,2 C 8,4 C 59 % 1017,1 hPa 0,0 l/m 2 min 0 min 1,3 UV-I 534 W/m 20,6 km/h (4 Bft)
04.03.2013 13:22 10,2 C 9,0 C 60 % 1017,0 hPa 0,0 l/m 2 min 0 min 1,3 UV-I 536 W/m 10,3 km/h (2 Bft)
04.03.2013 13:24 10,3 C 8,4 C 58 % 1017,0 hPa 0,0 l/m 2 min 0 min 1,3 UV-I 533 W/m 20,6 km/h (4 Bft)
04.03.2013 13:26 10,4 C 8,4 C 57 % 1017,0 hPa 0,0 l/m 2 min 0 min 1,3 UV-I 529 W/m 23,2 km/h (4 Bft)
04.03.2013 13:28 10,4 C 8,4 C 57 % 1016,9 hPa 0,0 l/m 2 min 0 min 1,3 UV-I 534 W/m 18,0 km/h (3 Bft)
04.03.2013 13:30 10,4 C 8,4 C 57 % 1016,9 hPa 0,0 l/m 2 min 0 min 1,3 UV-I 531 W/m 30,9 km/h (5 Bft)
04.03.2013 13:32 10,4 C 8,4 C 57 % 1016,9 hPa 0,0 l/m 2 min 0 min 1,2 UV-I 531 W/m 15,4 km/h (3 Bft)
04.03.2013 13:34 10,6 C 8,4 C 58 % 1016,8 hPa 0,0 l/m 2 min 0 min 1,2 UV-I 531 W/m 18,0 km/h (3 Bft)
04.03.2013 13:36 10,6 C 9,0 C 58 % 1016,9 hPa 0,0 l/m 2 min 0 min 1,2 UV-I 527 W/m 20,6 km/h (4 Bft)
04.03.2013 13:38 10,7 C 9,0 C 56 % 1016,9 hPa 0,0 l/m 2 min 0 min 1,2 UV-I 524 W/m 25,7 km/h (4 Bft)
04.03.2013 13:40 10,7 C 9,0 C 56 % 1016,8 hPa 0,0 l/m 2 min 0 min 1,2 UV-I 522 W/m 25,7 km/h (4 Bft)
04.03.2013 13:42 10,7 C 9,0 C 56 % 1016,8 hPa 0,0 l/m 2 min 0 min 1,2 UV-I 524 W/m 20,6 km/h (4 Bft)
04.03.2013 13:44 10,8 C 9,0 C 56 % 1016,8 hPa 0,0 l/m 2 min 0 min 1,2 UV-I 522 W/m 15,4 km/h (3 Bft)
04.03.2013 13:46 10,8 C 9,0 C 55 % 1016,7 hPa 0,0 l/m 2 min 0 min 1,2 UV-I 522 W/m 20,6 km/h (4 Bft)
04.03.2013 13:48 10,9 C 9,0 C 54 % 1016,8 hPa 0,0 l/m 2 min 0 min 1,2 UV-I 520 W/m 23,2 km/h (4 Bft)
04.03.2013 13:50 10,9 C 9,0 C 55 % 1016,6 hPa 0,0 l/m 2 min 0 min 1,1 UV-I 519 W/m 12,9 km/h (3 Bft)
04.03.2013 13:52 11,0 C 9,0 C 55 % 1016,6 hPa 0,0 l/m 2 min 0 min 1,1 UV-I 515 W/m 23,2 km/h (4 Bft)
04.03.2013 13:54 11,0 C 9,0 C 54 % 1016,6 hPa 0,0 l/m 2 min 0 min 1,1 UV-I 517 W/m 20,6 km/h (4 Bft)
04.03.2013 13:56 11,1 C 9,0 C 55 % 1016,6 hPa 0,0 l/m 2 min 0 min 1,1 UV-I 515 W/m 18,0 km/h (3 Bft)
04.03.2013 13:58 11,1 C 9,6 C 55 % 1016,6 hPa 0,0 l/m 2 min 0 min 1,1 UV-I 510 W/m 30,9 km/h (5 Bft)
04.03.2013 14:00 11,1 C 9,6 C 55 % 1016,6 hPa 0,0 l/m 2 min 0 min 1,1 UV-I 506 W/m 10,3 km/h (2 Bft)
04.03.2013 14:02 11,2 C 9,6 C 55 % 1016,5 hPa 0,0 l/m 2 min 0 min 1,1 UV-I 506 W/m 20,6 km/h (4 Bft)
04.03.2013 14:04 11,2 C 9,6 C 54 % 1016,6 hPa 0,0 l/m 2 min 0 min 1,0 UV-I 503 W/m 15,4 km/h (3 Bft)
04.03.2013 14:06 11,3 C 9,6 C 53 % 1016,6 hPa 0,0 l/m 2 min 0 min 1,0 UV-I 494 W/m 20,6 km/h (4 Bft)
04.03.2013 14:08 11,3 C 9,6 C 54 % 1016,6 hPa 0,0 l/m 2 min 0 min 1,0 UV-I 499 W/m 15,4 km/h (3 Bft)
04.03.2013 14:10 11,3 C 9,6 C 55 % 1016,6 hPa 0,0 l/m 2 min 0 min 1,0 UV-I 499 W/m 15,4 km/h (3 Bft)
04.03.2013 14:12 11,3 C 9,6 C 54 % 1016,6 hPa 0,0 l/m 2 min 0 min 1,0 UV-I 497 W/m 28,3 km/h (4 Bft)
04.03.2013 14:14 11,4 C 9,6 C 54 % 1016,6 hPa 0,0 l/m 2 min 0 min 1,0 UV-I 496 W/m 15,4 km/h (3 Bft)
04.03.2013 14:16 11,4 C 9,6 C 54 % 1016,6 hPa 0,0 l/m 2 min 0 min 1,0 UV-I 494 W/m 20,6 km/h (4 Bft)
04.03.2013 14:18 11,4 C 10,1 C 54 % 1016,5 hPa 0,0 l/m 2 min 0 min 1,0 UV-I 494 W/m 18,0 km/h (3 Bft)
04.03.2013 14:20 11,4 C 10,1 C 54 % 1016,4 hPa 0,0 l/m 2 min 0 min 0,9 UV-I 490 W/m 12,9 km/h (3 Bft)
04.03.2013 14:22 11,5 C 10,1 C 56 % 1016,4 hPa 0,0 l/m 2 min 0 min 0,9 UV-I 489 W/m 18,0 km/h (3 Bft)
04.03.2013 14:24 11,6 C 10,1 C 54 % 1016,3 hPa 0,0 l/m 2 min 0 min 0,9 UV-I 489 W/m 18,0 km/h (3 Bft)
04.03.2013 14:26 11,7 C 10,1 C 54 % 1016,3 hPa 0,0 l/m 2 min 0 min 0,9 UV-I 489 W/m 23,2 km/h (4 Bft)
04.03.2013 14:28 11,7 C 10,7 C 53 % 1016,2 hPa 0,0 l/m 2 min 0 min 0,9 UV-I 485 W/m 18,0 km/h (3 Bft)
04.03.2013 14:30 11,8 C 10,7 C 52 % 1016,3 hPa 0,0 l/m 2 min 0 min 0,9 UV-I 480 W/m 15,4 km/h (3 Bft)
04.03.2013 14:32 11,8 C 10,7 C 52 % 1016,2 hPa 0,0 l/m 2 min 0 min 0,9 UV-I 482 W/m 20,6 km/h (4 Bft)
04.03.2013 14:34 11,9 C 10,7 C 52 % 1016,1 hPa 0,0 l/m 2 min 0 min 0,8 UV-I 480 W/m 15,4 km/h (3 Bft)
04.03.2013 14:36 11,9 C 10,1 C 51 % 1016,2 hPa 0,0 l/m 2 min 0 min 0,8 UV-I 475 W/m 23,2 km/h (4 Bft)
04.03.2013 14:38 12,0 C 10,1 C 50 % 1016,1 hPa 0,0 l/m 2 min 0 min 0,8 UV-I 473 W/m 23,2 km/h (4 Bft)
04.03.2013 14:40 12,1 C 10,1 C 50 % 1016,1 hPa 0,0 l/m 2 min 0 min 0,8 UV-I 466 W/m 20,6 km/h (4 Bft)
04.03.2013 14:42 12,1 C 10,1 C 49 % 1016,1 hPa 0,0 l/m 2 min 0 min 0,8 UV-I 462 W/m 36,0 km/h (5 Bft)
04.03.2013 14:44 12,1 C 10,1 C 49 % 1016,0 hPa 0,0 l/m 2 min 0 min 0,7 UV-I 462 W/m 18,0 km/h (3 Bft)
04.03.2013 14:46 12,1 C 10,1 C 50 % 1016,0 hPa 0,0 l/m 2 min 0 min 0,7 UV-I 459 W/m 25,7 km/h (4 Bft)
04.03.2013 14:48 12,1 C 10,1 C 50 % 1016,0 hPa 0,0 l/m 2 min 0 min 0,7 UV-I 457 W/m 18,0 km/h (3 Bft)
04.03.2013 14:50 12,1 C 10,7 C 50 % 1015,9 hPa 0,0 l/m 2 min 0 min 0,7 UV-I 454 W/m 20,6 km/h (4 Bft)
04.03.2013 14:52 12,1 C 10,7 C 49 % 1015,9 hPa 0,0 l/m 2 min 0 min 0,7 UV-I 454 W/m 23,2 km/h (4 Bft)
04.03.2013 14:54 12,1 C 10,7 C 49 % 1016,0 hPa 0,0 l/m 2 min 0 min 0,7 UV-I 450 W/m 30,9 km/h (5 Bft)
04.03.2013 14:56 12,1 C 10,7 C 48 % 1015,8 hPa 0,0 l/m 2 min 0 min 0,6 UV-I 446 W/m 20,6 km/h (4 Bft)
04.03.2013 14:58 12,2 C 10,7 C 48 % 1015,8 hPa 0,0 l/m 2 min 0 min 0,6 UV-I 443 W/m 18,0 km/h (3 Bft)
04.03.2013 15:00 12,2 C 10,7 C 48 % 1015,8 hPa 0,0 l/m 2 min 0 min 0,6 UV-I 438 W/m 30,9 km/h (5 Bft)
04.03.2013 15:02 12,2 C 10,7 C 48 % 1015,8 hPa 0,0 l/m 2 min 0 min 0,6 UV-I 436 W/m 18,0 km/h (3 Bft)
04.03.2013 15:06 12,2 C 10,7 C 47 % 1015,7 hPa 0,0 l/m 2 min 0 min 0,5 UV-I 431 W/m 28,3 km/h (4 Bft)
04.03.2013 15:08 12,2 C 10,7 C 47 % 1015,8 hPa 0,0 l/m 2 min 0 min 0,5 UV-I 427 W/m 38,6 km/h (5 Bft)
04.03.2013 15:10 12,2 C 10,7 C 47 % 1015,7 hPa 0,0 l/m 2 min 0 min 0,5 UV-I 422 W/m 23,2 km/h (4 Bft)
04.03.2013 15:12 12,1 C 10,7 C 47 % 1015,6 hPa 0,0 l/m 2 min 0 min 0,5 UV-I 418 W/m 25,7 km/h (4 Bft)
04.03.2013 15:14 12,1 C 10,7 C 48 % 1015,6 hPa 0,0 l/m 2 min 0 min 0,5 UV-I 418 W/m 25,7 km/h (4 Bft)
04.03.2013 15:16 12,1 C 10,7 C 47 % 1015,6 hPa 0,0 l/m 2 min 0 min 0,0 UV-I 415 W/m 30,9 km/h (5 Bft)
04.03.2013 15:18 12,1 C 10,7 C 48 % 1015,5 hPa 0,0 l/m 2 min 0 min 0,0 UV-I 410 W/m 20,6 km/h (4 Bft)
04.03.2013 15:20 12,1 C 10,7 C 47 % 1015,4 hPa 0,0 l/m 2 min 0 min 0,0 UV-I 408 W/m 23,2 km/h (4 Bft)
04.03.2013 15:22 12,1 C 10,7 C 48 % 1015,4 hPa 0,0 l/m 2 min 0 min 0,0 UV-I 404 W/m 25,7 km/h (4 Bft)
04.03.2013 15:24 12,1 C 10,7 C 48 % 1015,5 hPa 0,0 l/m 2 min 0 min 0,0 UV-I 401 W/m 28,3 km/h (4 Bft)
04.03.2013 15:26 12,1 C 10,7 C 47 % 1015,4 hPa 0,0 l/m 2 min 0 min 0,0 UV-I 397 W/m 25,7 km/h (4 Bft)
04.03.2013 15:28 12,1 C 10,7 C 47 % 1015,5 hPa 0,0 l/m 2 min 0 min 0,0 UV-I 396 W/m 28,3 km/h (4 Bft)
04.03.2013 15:30 12,1 C 10,7 C 48 % 1015,4 hPa 0,0 l/m 2 min 0 min 0,0 UV-I 387 W/m 23,2 km/h (4 Bft)
04.03.2013 15:32 12,1 C 10,7 C 47 % 1015,3 hPa 0,0 l/m 2 min 0 min 0,0 UV-I 387 W/m 25,7 km/h (4 Bft)
04.03.2013 15:34 12,1 C 10,7 C 48 % 1015,3 hPa 0,0 l/m 2 min 0 min 0,0 UV-I 381 W/m 23,2 km/h (4 Bft)
04.03.2013 15:36 12,1 C 10,7 C 48 % 1015,3 hPa 0,0 l/m 2 min 0 min 0,0 UV-I 380 W/m 30,9 km/h (5 Bft)
04.03.2013 15:38 12,1 C 10,7 C 47 % 1015,3 hPa 0,0 l/m 2 min 0 min 0,0 UV-I 376 W/m 33,5 km/h (5 Bft)
04.03.2013 15:40 12,1 C 10,7 C 47 % 1015,2 hPa 0,0 l/m 2 min 0 min 0,0 UV-I 373 W/m 25,7 km/h (4 Bft)
04.03.2013 15:42 12,1 C 10,7 C 47 % 1015,1 hPa 0,0 l/m 2 min 0 min 0,0 UV-I 367 W/m 33,5 km/h (5 Bft)
04.03.2013 15:44 12,0 C 10,7 C 48 % 1015,2 hPa 0,0 l/m 2 min 0 min 0,0 UV-I 364 W/m 30,9 km/h (5 Bft)
04.03.2013 15:46 12,1 C 10,7 C 49 % 1015,1 hPa 0,0 l/m 2 min 0 min 0,0 UV-I 359 W/m 12,9 km/h (3 Bft)
04.03.2013 15:48 12,1 C 10,7 C 49 % 1015,0 hPa 0,0 l/m 2 min 0 min 0,0 UV-I 359 W/m 20,6 km/h (4 Bft)
04.03.2013 15:50 12,1 C 10,7 C 49 % 1015,0 hPa 0,0 l/m 2 min 0 min 0,0 UV-I 366 W/m 28,3 km/h (4 Bft)
04.03.2013 15:52 12,2 C 10,7 C 49 % 1015,0 hPa 0,0 l/m 2 min 0 min 0,0 UV-I 381 W/m 20,6 km/h (4 Bft)
04.03.2013 15:54 12,2 C 10,7 C 48 % 1014,9 hPa 0,0 l/m 2 min 0 min 0,0 UV-I 378 W/m 18,0 km/h (3 Bft)
04.03.2013 15:56 12,2 C 10,7 C 49 % 1014,9 hPa 0,0 l/m 2 min 0 min 0,0 UV-I 373 W/m 18,0 km/h (3 Bft)
04.03.2013 15:58 12,2 C 10,7 C 48 % 1014,9 hPa 0,0 l/m 2 min 0 min 0,0 UV-I 364 W/m 23,2 km/h (4 Bft)
04.03.2013 16:00 12,2 C 10,7 C 48 % 1014,8 hPa 0,0 l/m 2 min 0 min 0,0 UV-I 360 W/m 12,9 km/h (3 Bft)
04.03.2013 16:02 12,2 C 11,2 C 48 % 1014,8 hPa 0,0 l/m 2 min 0 min 0,0 UV-I 360 W/m 23,2 km/h (4 Bft)
04.03.2013 16:04 12,2 C 10,7 C 48 % 1014,8 hPa 0,0 l/m 2 min 0 min 0,0 UV-I 352 W/m 20,6 km/h (4 Bft)
04.03.2013 16:06 12,2 C 10,7 C 47 % 1014,8 hPa 0,0 l/m 2 min 0 min 0,0 UV-I 343 W/m 33,5 km/h (5 Bft)
04.03.2013 16:08 12,2 C 10,7 C 48 % 1014,7 hPa 0,0 l/m 2 min 0 min 0,0 UV-I 329 W/m 23,2 km/h (4 Bft)
04.03.2013 16:10 12,2 C 10,7 C 48 % 1014,7 hPa 0,0 l/m 2 min 0 min 0,0 UV-I 309 W/m 20,6 km/h (4 Bft)
04.03.2013 16:12 12,2 C 10,7 C 49 % 1014,6 hPa 0,0 l/m 2 min 0 min 0,0 UV-I 306 W/m 12,9 km/h (3 Bft)
04.03.2013 16:14 12,2 C 10,7 C 49 % 1014,6 hPa 0,0 l/m 2 min 0 min 0,0 UV-I 302 W/m 10,3 km/h (2 Bft)
04.03.2013 16:16 12,2 C 10,7 C 49 % 1014,6 hPa 0,0 l/m 2 min 0 min 0,0 UV-I 297 W/m 18,0 km/h (3 Bft)
04.03.2013 16:18 12,2 C 10,1 C 49 % 1014,6 hPa 0,0 l/m 2 min 0 min 0,0 UV-I 294 W/m 23,2 km/h (4 Bft)
04.03.2013 16:20 12,2 C 10,1 C 48 % 1014,6 hPa 0,0 l/m 2 min 0 min 0,0 UV-I 290 W/m 28,3 km/h (4 Bft)
04.03.2013 16:22 12,2 C 10,1 C 49 % 1014,6 hPa 0,0 l/m 2 min 0 min 0,0 UV-I 283 W/m 28,3 km/h (4 Bft)
04.03.2013 16:24 12,2 C 10,1 C 48 % 1014,4 hPa 0,0 l/m 2 min 0 min 0,0 UV-I 279 W/m 33,5 km/h (5 Bft)
04.03.2013 16:26 12,1 C 10,1 C 49 % 1014,4 hPa 0,0 l/m 2 min 0 min 0,0 UV-I 276 W/m 23,2 km/h (4 Bft)
04.03.2013 16:28 12,1 C 10,1 C 49 % 1014,3 hPa 0,0 l/m 2 min 0 min 0,0 UV-I 267 W/m 12,9 km/h (3 Bft)
04.03.2013 16:30 12,1 C 10,1 C 50 % 1014,3 hPa 0,0 l/m 2 min 0 min 0,0 UV-I 267 W/m 20,6 km/h (4 Bft)
04.03.2013 16:32 12,1 C 9,6 C 50 % 1014,3 hPa 0,0 l/m 2 min 0 min 0,0 UV-I 271 W/m 12,9 km/h (3 Bft)
04.03.2013 16:34 12,1 C 10,1 C 49 % 1014,3 hPa 0,0 l/m 2 min 0 min 0,0 UV-I 146 W/m 15,4 km/h (3 Bft)
04.03.2013 16:36 12,1 C 9,6 C 50 % 1014,3 hPa 0,0 l/m 0 min 0 min 0,0 UV-I 60 W/m 23,2 km/h (4 Bft)
04.03.2013 16:38 12,0 C 9,6 C 50 % 1014,3 hPa 0,0 l/m 0 min 0 min 0,0 UV-I 47 W/m 20,6 km/h (4 Bft)
04.03.2013 16:40 12,0 C 9,6 C 50 % 1014,4 hPa 0,0 l/m 0 min 0 min 0,0 UV-I 46 W/m 18,0 km/h (3 Bft)
04.03.2013 16:42 11,9 C 9,6 C 50 % 1014,4 hPa 0,0 l/m 0 min 0 min 0,0 UV-I 53 W/m 23,2 km/h (4 Bft)
04.03.2013 16:44 11,9 C 9,6 C 49 % 1014,3 hPa 0,0 l/m 0 min 0 min 0,0 UV-I 54 W/m 23,2 km/h (4 Bft)
04.03.2013 16:46 11,8 C 9,6 C 49 % 1014,3 hPa 0,0 l/m 2 min 0 min 0,0 UV-I 155 W/m 18,0 km/h (3 Bft)
04.03.2013 16:48 11,8 C 9,6 C 49 % 1014,3 hPa 0,0 l/m 2 min 0 min 0,0 UV-I 216 W/m 25,7 km/h (4 Bft)
04.03.2013 16:50 11,7 C 9,6 C 50 % 1014,3 hPa 0,0 l/m 2 min 0 min 0,0 UV-I 213 W/m 18,0 km/h (3 Bft)
04.03.2013 16:52 11,7 C 9,6 C 50 % 1014,2 hPa 0,0 l/m 2 min 0 min 0,0 UV-I 148 W/m 10,3 km/h (2 Bft)
04.03.2013 16:54 11,6 C 9,0 C 51 % 1014,2 hPa 0,0 l/m 2 min 0 min 0,0 UV-I 186 W/m 15,4 km/h (3 Bft)
04.03.2013 16:56 11,6 C 9,0 C 51 % 1014,3 hPa 0,0 l/m 2 min 0 min 0,0 UV-I 156 W/m 12,9 km/h (3 Bft)
04.03.2013 16:58 11,5 C 9,0 C 51 % 1014,2 hPa 0,0 l/m 0 min 0 min 0,0 UV-I 86 W/m 15,4 km/h (3 Bft)
04.03.2013 17:00 11,5 C 9,0 C 50 % 1014,2 hPa 0,0 l/m 0 min 0 min 0,0 UV-I 58 W/m 20,6 km/h (4 Bft)
04.03.2013 17:02 11,4 C 9,0 C 51 % 1014,2 hPa 0,0 l/m 0 min 0 min 0,0 UV-I 33 W/m 23,2 km/h (4 Bft)
04.03.2013 17:04 11,4 C 9,0 C 51 % 1014,1 hPa 0,0 l/m 0 min 0 min 0,0 UV-I 32 W/m 15,4 km/h (3 Bft)
04.03.2013 17:06 11,4 C 9,0 C 51 % 1014,1 hPa 0,0 l/m 0 min 0 min 0,0 UV-I 32 W/m 18,0 km/h (3 Bft)
04.03.2013 17:08 11,3 C 9,0 C 51 % 1014,1 hPa 0,0 l/m 0 min 0 min 0,0 UV-I 30 W/m 20,6 km/h (4 Bft)
04.03.2013 17:10 11,3 C 9,0 C 51 % 1014,0 hPa 0,0 l/m 0 min 0 min 0,0 UV-I 30 W/m 15,4 km/h (3 Bft)
04.03.2013 17:12 11,3 C 9,0 C 52 % 1014,0 hPa 0,0 l/m 0 min 0 min 0,0 UV-I 30 W/m 20,6 km/h (4 Bft)
04.03.2013 17:14 11,2 C 8,4 C 52 % 1013,9 hPa 0,0 l/m 0 min 0 min 0,0 UV-I 30 W/m 18,0 km/h (3 Bft)
04.03.2013 17:16 11,2 C 8,4 C 52 % 1013,9 hPa 0,0 l/m 0 min 0 min 0,0 UV-I 28 W/m 18,0 km/h (3 Bft)
04.03.2013 17:18 11,1 C 9,0 C 52 % 1013,9 hPa 0,0 l/m 0 min 0 min 0,0 UV-I 28 W/m 18,0 km/h (3 Bft)
04.03.2013 17:20 11,1 C 8,4 C 51 % 1013,9 hPa 0,0 l/m 0 min 0 min 0,0 UV-I 26 W/m 30,9 km/h (5 Bft)
04.03.2013 17:22 11,1 C 8,4 C 52 % 1013,9 hPa 0,0 l/m 0 min 0 min 0,0 UV-I 26 W/m 10,3 km/h (2 Bft)
04.03.2013 17:24 11,0 C 8,4 C 52 % 1013,9 hPa 0,0 l/m 0 min 0 min 0,0 UV-I 26 W/m 18,0 km/h (3 Bft)
04.03.2013 17:26 10,9 C 8,4 C 52 % 1013,9 hPa 0,0 l/m 0 min 0 min 0,0 UV-I 25 W/m 20,6 km/h (4 Bft)
04.03.2013 17:28 10,9 C 8,4 C 52 % 1013,9 hPa 0,0 l/m 0 min 0 min 0,0 UV-I 25 W/m 15,4 km/h (3 Bft)
04.03.2013 17:30 10,9 C 8,4 C 52 % 1013,9 hPa 0,0 l/m 0 min 0 min 0,0 UV-I 25 W/m 15,4 km/h (3 Bft)
04.03.2013 17:32 10,8 C 8,4 C 52 % 1014,0 hPa 0,0 l/m 0 min 0 min 0,0 UV-I 23 W/m 15,4 km/h (3 Bft)
04.03.2013 17:34 10,8 C 8,4 C 52 % 1013,9 hPa 0,0 l/m 0 min 0 min 0,0 UV-I 23 W/m 15,4 km/h (3 Bft)
04.03.2013 17:36 10,8 C 8,4 C 52 % 1013,9 hPa 0,0 l/m 0 min 0 min 0,0 UV-I 23 W/m 20,6 km/h (4 Bft)
04.03.2013 17:38 10,8 C 8,4 C 53 % 1013,9 hPa 0,0 l/m 0 min 0 min 0,0 UV-I 21 W/m 15,4 km/h (3 Bft)
04.03.2013 17:40 10,7 C 8,4 C 53 % 1013,8 hPa 0,0 l/m 0 min 0 min 0,0 UV-I 21 W/m 15,4 km/h (3 Bft)
04.03.2013 17:42 10,7 C 7,9 C 53 % 1013,9 hPa 0,0 l/m 0 min 0 min 0,0 UV-I 21 W/m 23,2 km/h (4 Bft)
04.03.2013 17:44 10,6 C 7,9 C 53 % 1013,8 hPa 0,0 l/m 0 min 0 min 0,0 UV-I 19 W/m 12,9 km/h (3 Bft)
04.03.2013 17:46 10,6 C 7,9 C 53 % 1013,8 hPa 0,0 l/m 0 min 0 min 0,0 UV-I 19 W/m 10,3 km/h (2 Bft)
04.03.2013 17:48 10,6 C 7,9 C 53 % 1013,9 hPa 0,0 l/m 0 min 0 min 0,0 UV-I 18 W/m 18,0 km/h (3 Bft)
04.03.2013 17:50 10,5 C 7,9 C 53 % 1013,8 hPa 0,0 l/m 0 min 0 min 0,0 UV-I 21 W/m 12,9 km/h (3 Bft)
04.03.2013 17:52 10,4 C 7,9 C 53 % 1013,8 hPa 0,0 l/m 0 min 0 min 0,0 UV-I 23 W/m 18,0 km/h (3 Bft)
04.03.2013 17:54 10,4 C 7,3 C 53 % 1013,8 hPa 0,0 l/m 0 min 0 min 0,0 UV-I 18 W/m 15,4 km/h (3 Bft)
04.03.2013 17:56 10,3 C 7,3 C 53 % 1013,8 hPa 0,0 l/m 0 min 0 min 0,0 UV-I 14 W/m 12,9 km/h (3 Bft)
04.03.2013 17:58 10,3 C 7,3 C 53 % 1013,8 hPa 0,0 l/m 0 min 0 min 0,0 UV-I 12 W/m 15,4 km/h (3 Bft)
04.03.2013 18:00 10,3 C 7,3 C 54 % 1013,9 hPa 0,0 l/m 0 min 0 min 0,0 UV-I 12 W/m 12,9 km/h (3 Bft)
04.03.2013 18:02 10,2 C 7,3 C 54 % 1013,9 hPa 0,0 l/m 0 min 0 min 0,0 UV-I 12 W/m 15,4 km/h (3 Bft)
04.03.2013 18:06 10,1 C 7,3 C 54 % 1013,9 hPa 0,0 l/m 0 min 0 min 0,0 UV-I 11 W/m 20,6 km/h (4 Bft)
04.03.2013 18:08 10,1 C 7,3 C 54 % 1013,9 hPa 0,0 l/m 0 min 0 min 0,0 UV-I 9 W/m 15,4 km/h (3 Bft)
04.03.2013 18:10 10,1 C 6,8 C 54 % 1014,0 hPa 0,0 l/m 0 min 0 min 0,0 UV-I 9 W/m 10,3 km/h (2 Bft)
04.03.2013 18:12 10,0 C 6,8 C 54 % 1014,1 hPa 0,0 l/m 0 min 0 min 0,0 UV-I 7 W/m 12,9 km/h (3 Bft)
04.03.2013 18:14 9,9 C 6,8 C 54 % 1014,1 hPa 0,0 l/m 0 min 0 min 0,0 UV-I 7 W/m 15,4 km/h (3 Bft)
04.03.2013 18:16 9,9 C 6,8 C 55 % 1014,1 hPa 0,0 l/m 0 min 0 min 0,0 UV-I 5 W/m 7,7 km/h (2 Bft)
04.03.2013 18:18 9,8 C 6,8 C 55 % 1014,0 hPa 0,0 l/m 0 min 0 min 0,0 UV-I 5 W/m 10,3 km/h (2 Bft)
04.03.2013 18:20 9,8 C 6,2 C 55 % 1014,1 hPa 0,0 l/m 0 min 0 min 0,0 UV-I 5 W/m 12,9 km/h (3 Bft)
04.03.2013 18:22 9,7 C 6,2 C 55 % 1014,1 hPa 0,0 l/m 0 min 0 min 0,0 UV-I 0 W/m 7,7 km/h (2 Bft)
04.03.2013 18:24 9,7 C 6,2 C 55 % 1014,1 hPa 0,0 l/m 0 min 0 min 0,0 UV-I 0 W/m 18,0 km/h (3 Bft)
04.03.2013 18:26 9,6 C 6,2 C 55 % 1014,1 hPa 0,0 l/m 0 min 0 min 0,0 UV-I 0 W/m 15,4 km/h (3 Bft)
04.03.2013 18:28 9,6 C 6,2 C 56 % 1014,2 hPa 0,0 l/m 0 min 0 min 0,0 UV-I 0 W/m 7,7 km/h (2 Bft)
04.03.2013 18:30 9,5 C 6,2 C 56 % 1014,2 hPa 0,0 l/m 0 min 0 min 0,0 UV-I 0 W/m 7,7 km/h (2 Bft)
04.03.2013 18:32 9,4 C 6,2 C 56 % 1014,1 hPa 0,0 l/m 0 min 0 min 0,0 UV-I 0 W/m 12,9 km/h (3 Bft)
04.03.2013 18:34 9,4 C 6,2 C 56 % 1014,2 hPa 0,0 l/m 0 min 0 min 0,0 UV-I 0 W/m 10,3 km/h (2 Bft)
04.03.2013 18:36 9,3 C 6,2 C 57 % 1014,2 hPa 0,0 l/m 0 min 0 min 0,0 UV-I 0 W/m 10,3 km/h (2 Bft)
04.03.2013 18:38 9,3 C 5,7 C 57 % 1014,2 hPa 0,0 l/m 0 min 0 min 0,0 UV-I 0 W/m 7,7 km/h (2 Bft)
04.03.2013 18:40 9,2 C 5,7 C 57 % 1014,2 hPa 0,0 l/m 0 min 0 min 0,0 UV-I 0 W/m 10,3 km/h (2 Bft)
04.03.2013 18:42 9,2 C 5,7 C 57 % 1014,3 hPa 0,0 l/m 0 min 0 min 0,0 UV-I 0 W/m 0,0 km/h (0 Bft)
04.03.2013 18:44 9,2 C 5,1 C 57 % 1014,2 hPa 0,0 l/m 0 min 0 min 0,0 UV-I 0 W/m 5,1 km/h (1 Bft)
04.03.2013 18:46 9,1 C 5,1 C 58 % 1014,2 hPa 0,0 l/m 0 min 0 min 0,0 UV-I 0 W/m 7,7 km/h (2 Bft)
04.03.2013 18:48 9,0 C 5,1 C 58 % 1014,2 hPa 0,0 l/m 0 min 0 min 0,0 UV-I 0 W/m 10,3 km/h (2 Bft)
04.03.2013 18:50 8,9 C 5,1 C 58 % 1014,2 hPa 0,0 l/m 0 min 0 min 0,0 UV-I 0 W/m 0,0 km/h (0 Bft)
04.03.2013 18:52 8,9 C 5,1 C 59 % 1014,2 hPa 0,0 l/m 0 min 0 min 0,0 UV-I 0 W/m 10,3 km/h (2 Bft)
04.03.2013 18:54 8,8 C 5,1 C 59 % 1014,2 hPa 0,0 l/m 0 min 0 min 0,0 UV-I 0 W/m 10,3 km/h (2 Bft)
04.03.2013 18:56 8,7 C 5,1 C 59 % 1014,2 hPa 0,0 l/m 0 min 0 min 0,0 UV-I 0 W/m 7,7 km/h (2 Bft)
04.03.2013 18:58 8,7 C 5,1 C 59 % 1014,2 hPa 0,0 l/m 0 min 0 min 0,0 UV-I 0 W/m 15,4 km/h (3 Bft)
04.03.2013 19:00 8,6 C 5,7 C 59 % 1014,2 hPa 0,0 l/m 0 min 0 min 0,0 UV-I 0 W/m 12,9 km/h (3 Bft)
04.03.2013 19:02 8,5 C 5,7 C 59 % 1014,2 hPa 0,0 l/m 0 min 0 min 0,0 UV-I 0 W/m 10,3 km/h (2 Bft)
04.03.2013 19:04 8,4 C 5,7 C 59 % 1014,2 hPa 0,0 l/m 0 min 0 min 0,0 UV-I 0 W/m 7,7 km/h (2 Bft)
04.03.2013 19:06 8,4 C 5,7 C 59 % 1014,2 hPa 0,0 l/m 0 min 0 min 0,0 UV-I 0 W/m 7,7 km/h (2 Bft)
04.03.2013 19:08 8,3 C 5,1 C 59 % 1014,2 hPa 0,0 l/m 0 min 0 min 0,0 UV-I 0 W/m 10,3 km/h (2 Bft)
04.03.2013 19:10 8,3 C 5,7 C 59 % 1014,2 hPa 0,0 l/m 0 min 0 min 0,0 UV-I 0 W/m 7,7 km/h (2 Bft)
04.03.2013 19:12 8,3 C 5,7 C 59 % 1014,2 hPa 0,0 l/m 0 min 0 min 0,0 UV-I 0 W/m 12,9 km/h (3 Bft)
04.03.2013 19:14 8,2 C 5,7 C 59 % 1014,2 hPa 0,0 l/m 0 min 0 min 0,0 UV-I 0 W/m 10,3 km/h (2 Bft)
04.03.2013 19:16 8,2 C 5,7 C 60 % 1014,2 hPa 0,0 l/m 0 min 0 min 0,0 UV-I 0 W/m 12,9 km/h (3 Bft)
04.03.2013 19:18 8,2 C 5,7 C 59 % 1014,3 hPa 0,0 l/m 0 min 0 min 0,0 UV-I 0 W/m 15,4 km/h (3 Bft)
04.03.2013 19:20 8,2 C 5,7 C 59 % 1014,2 hPa 0,0 l/m 0 min 0 min 0,0 UV-I 0 W/m 18,0 km/h (3 Bft)
04.03.2013 19:22 8,1 C 5,7 C 60 % 1014,2 hPa 0,0 l/m 0 min 0 min 0,0 UV-I 0 W/m 10,3 km/h (2 Bft)
04.03.2013 19:24 8,1 C 5,7 C 59 % 1014,2 hPa 0,0 l/m 0 min 0 min 0,0 UV-I 0 W/m 10,3 km/h (2 Bft)
04.03.2013 19:26 8,1 C 5,1 C 60 % 1014,3 hPa 0,0 l/m 0 min 0 min 0,0 UV-I 0 W/m 15,4 km/h (3 Bft)
04.03.2013 19:28 8,1 C 5,1 C 60 % 1014,2 hPa 0,0 l/m 0 min 0 min 0,0 UV-I 0 W/m 5,1 km/h (1 Bft)
04.03.2013 19:30 8,0 C 5,1 C 60 % 1014,2 hPa 0,0 l/m 0 min 0 min 0,0 UV-I 0 W/m 12,9 km/h (3 Bft)
04.03.2013 19:32 7,9 C 5,1 C 60 % 1014,1 hPa 0,0 l/m 0 min 0 min 0,0 UV-I 0 W/m 12,9 km/h (3 Bft)
04.03.2013 19:34 7,9 C 5,1 C 60 % 1014,1 hPa 0,0 l/m 0 min 0 min 0,0 UV-I 0 W/m 12,9 km/h (3 Bft)
04.03.2013 19:36 7,9 C 5,1 C 60 % 1014,1 hPa 0,0 l/m 0 min 0 min 0,0 UV-I 0 W/m 5,1 km/h (1 Bft)
04.03.2013 19:38 7,9 C 5,1 C 60 % 1014,1 hPa 0,0 l/m 0 min 0 min 0,0 UV-I 0 W/m 18,0 km/h (3 Bft)
04.03.2013 19:40 7,8 C 5,1 C 60 % 1014,1 hPa 0,0 l/m 0 min 0 min 0,0 UV-I 0 W/m 18,0 km/h (3 Bft)
04.03.2013 19:42 7,8 C 5,1 C 60 % 1014,1 hPa 0,0 l/m 0 min 0 min 0,0 UV-I 0 W/m 23,2 km/h (4 Bft)
04.03.2013 19:44 7,8 C 5,1 C 60 % 1014,1 hPa 0,0 l/m 0 min 0 min 0,0 UV-I 0 W/m 12,9 km/h (3 Bft)
04.03.2013 19:46 7,8 C 5,1 C 60 % 1014,0 hPa 0,0 l/m 0 min 0 min 0,0 UV-I 0 W/m 20,6 km/h (4 Bft)
04.03.2013 19:48 7,8 C 5,7 C 60 % 1014,1 hPa 0,0 l/m 0 min 0 min 0,0 UV-I 0 W/m 18,0 km/h (3 Bft)
04.03.2013 19:50 7,8 C 5,1 C 60 % 1014,1 hPa 0,0 l/m 0 min 0 min 0,0 UV-I 0 W/m 18,0 km/h (3 Bft)
04.03.2013 19:52 7,7 C 5,1 C 60 % 1014,1 hPa 0,0 l/m 0 min 0 min 0,0 UV-I 0 W/m 23,2 km/h (4 Bft)
04.03.2013 19:54 7,7 C 5,1 C 60 % 1014,1 hPa 0,0 l/m 0 min 0 min 0,0 UV-I 0 W/m 20,6 km/h (4 Bft)
04.03.2013 19:56 7,7 C 5,7 C 60 % 1014,1 hPa 0,0 l/m 0 min 0 min 0,0 UV-I 0 W/m 25,7 km/h (4 Bft)
04.03.2013 19:58 7,7 C 5,7 C 60 % 1014,2 hPa 0,0 l/m 0 min 0 min 0,0 UV-I 0 W/m 23,2 km/h (4 Bft)
04.03.2013 20:00 7,7 C 5,7 C 60 % 1014,1 hPa 0,0 l/m 0 min 0 min 0,0 UV-I 0 W/m 20,6 km/h (4 Bft)
04.03.2013 20:02 7,7 C 5,7 C 60 % 1014,1 hPa 0,0 l/m 0 min 0 min 0,0 UV-I 0 W/m 23,2 km/h (4 Bft)
04.03.2013 20:04 7,7 C 5,7 C 60 % 1014,0 hPa 0,0 l/m 0 min 0 min 0,0 UV-I 0 W/m 18,0 km/h (3 Bft)
04.03.2013 20:06 7,7 C 5,1 C 60 % 1014,0 hPa 0,0 l/m 0 min 0 min 0,0 UV-I 0 W/m 20,6 km/h (4 Bft)
04.03.2013 20:08 7,7 C 5,1 C 61 % 1014,0 hPa 0,0 l/m 0 min 0 min 0,0 UV-I 0 W/m 25,7 km/h (4 Bft)
04.03.2013 20:10 7,6 C 5,1 C 61 % 1014,1 hPa 0,0 l/m 0 min 0 min 0,0 UV-I 0 W/m 20,6 km/h (4 Bft)
04.03.2013 20:12 7,6 C 5,1 C 61 % 1014,0 hPa 0,0 l/m 0 min 0 min 0,0 UV-I 0 W/m 28,3 km/h (4 Bft)
04.03.2013 20:14 7,6 C 5,1 C 61 % 1014,0 hPa 0,0 l/m 0 min 0 min 0,0 UV-I 0 W/m 18,0 km/h (3 Bft)
04.03.2013 20:16 7,6 C 5,1 C 61 % 1014,0 hPa 0,0 l/m 0 min 0 min 0,0 UV-I 0 W/m 18,0 km/h (3 Bft)
04.03.2013 20:18 7,6 C 5,1 C 61 % 1014,0 hPa 0,0 l/m 0 min 0 min 0,0 UV-I 0 W/m 15,4 km/h (3 Bft)
04.03.2013 20:20 7,5 C 5,1 C 61 % 1014,0 hPa 0,0 l/m 0 min 0 min 0,0 UV-I 0 W/m 20,6 km/h (4 Bft)
04.03.2013 20:22 7,4 C 5,1 C 62 % 1014,0 hPa 0,0 l/m 0 min 0 min 0,0 UV-I 0 W/m 28,3 km/h (4 Bft)
04.03.2013 20:24 7,4 C 5,1 C 62 % 1014,0 hPa 0,0 l/m 0 min 0 min 0,0 UV-I 0 W/m 23,2 km/h (4 Bft)
04.03.2013 20:26 7,4 C 5,1 C 62 % 1014,0 hPa 0,0 l/m 0 min 0 min 0,0 UV-I 0 W/m 18,0 km/h (3 Bft)
04.03.2013 20:28 7,3 C 5,1 C 62 % 1014,0 hPa 0,0 l/m 0 min 0 min 0,0 UV-I 0 W/m 15,4 km/h (3 Bft)
04.03.2013 20:30 7,3 C 5,1 C 62 % 1014,0 hPa 0,0 l/m 0 min 0 min 0,0 UV-I 0 W/m 20,6 km/h (4 Bft)
04.03.2013 20:32 7,2 C 5,1 C 63 % 1014,0 hPa 0,0 l/m 0 min 0 min 0,0 UV-I 0 W/m 20,6 km/h (4 Bft)
04.03.2013 20:34 7,2 C 4,6 C 63 % 1014,0 hPa 0,0 l/m 0 min 0 min 0,0 UV-I 0 W/m 15,4 km/h (3 Bft)
04.03.2013 20:36 7,2 C 4,6 C 63 % 1014,0 hPa 0,0 l/m 0 min 0 min 0,0 UV-I 0 W/m 18,0 km/h (3 Bft)
04.03.2013 20:38 7,1 C 4,6 C 63 % 1013,9 hPa 0,0 l/m 0 min 0 min 0,0 UV-I 0 W/m 20,6 km/h (4 Bft)
04.03.2013 20:40 7,1 C 4,6 C 63 % 1013,9 hPa 0,0 l/m 0 min 0 min 0,0 UV-I 0 W/m 18,0 km/h (3 Bft)
04.03.2013 20:42 7,0 C 4,6 C 64 % 1013,9 hPa 0,0 l/m 0 min 0 min 0,0 UV-I 0 W/m 15,4 km/h (3 Bft)
04.03.2013 20:44 6,9 C 4,6 C 64 % 1014,0 hPa 0,0 l/m 0 min 0 min 0,0 UV-I 0 W/m 23,2 km/h (4 Bft)
04.03.2013 20:46 6,9 C 4,6 C 64 % 1014,0 hPa 0,0 l/m 0 min 0 min 0,0 UV-I 0 W/m 18,0 km/h (3 Bft)
04.03.2013 20:48 6,8 C 4,6 C 65 % 1014,0 hPa 0,0 l/m 0 min 0 min 0,0 UV-I 0 W/m 23,2 km/h (4 Bft)
04.03.2013 20:50 6,8 C 4,6 C 65 % 1014,0 hPa 0,0 l/m 0 min 0 min 0,0 UV-I 0 W/m 18,0 km/h (3 Bft)
04.03.2013 20:52 6,8 C 4,6 C 65 % 1014,0 hPa 0,0 l/m 0 min 0 min 0,0 UV-I 0 W/m 12,9 km/h (3 Bft)
04.03.2013 20:54 6,7 C 4,6 C 65 % 1014,0 hPa 0,0 l/m 0 min 0 min 0,0 UV-I 0 W/m 18,0 km/h (3 Bft)
04.03.2013 20:56 6,7 C 4,6 C 65 % 1014,0 hPa 0,0 l/m 0 min 0 min 0,0 UV-I 0 W/m 10,3 km/h (2 Bft)
04.03.2013 20:58 6,6 C 4,0 C 65 % 1014,0 hPa 0,0 l/m 0 min 0 min 0,0 UV-I 0 W/m 18,0 km/h (3 Bft)
04.03.2013 21:00 6,6 C 4,0 C 66 % 1014,0 hPa 0,0 l/m 0 min 0 min 0,0 UV-I 0 W/m 15,4 km/h (3 Bft)
04.03.2013 21:02 6,6 C 4,0 C 66 % 1013,9 hPa 0,0 l/m 0 min 0 min 0,0 UV-I 0 W/m 15,4 km/h (3 Bft)
04.03.2013 21:06 6,5 C 4,0 C 66 % 1013,9 hPa 0,0 l/m 0 min 0 min 0,0 UV-I 0 W/m 20,6 km/h (4 Bft)
04.03.2013 21:08 6,4 C 4,0 C 66 % 1013,8 hPa 0,0 l/m 0 min 0 min 0,0 UV-I 0 W/m 7,7 km/h (2 Bft)
04.03.2013 21:10 6,4 C 4,0 C 66 % 1013,7 hPa 0,0 l/m 0 min 0 min 0,0 UV-I 0 W/m 18,0 km/h (3 Bft)
04.03.2013 21:12 6,4 C 4,0 C 67 % 1013,7 hPa 0,0 l/m 0 min 0 min 0,0 UV-I 0 W/m 10,3 km/h (2 Bft)
04.03.2013 21:14 6,4 C 4,0 C 67 % 1013,7 hPa 0,0 l/m 0 min 0 min 0,0 UV-I 0 W/m 12,9 km/h (3 Bft)
04.03.2013 21:16 6,3 C 4,0 C 67 % 1013,8 hPa 0,0 l/m 0 min 0 min 0,0 UV-I 0 W/m 12,9 km/h (3 Bft)
04.03.2013 21:18 6,3 C 4,0 C 67 % 1013,8 hPa 0,0 l/m 0 min 0 min 0,0 UV-I 0 W/m 18,0 km/h (3 Bft)
04.03.2013 21:20 6,3 C 4,0 C 67 % 1013,7 hPa 0,0 l/m 0 min 0 min 0,0 UV-I 0 W/m 18,0 km/h (3 Bft)
04.03.2013 21:22 6,3 C 4,0 C 67 % 1013,7 hPa 0,0 l/m 0 min 0 min 0,0 UV-I 0 W/m 15,4 km/h (3 Bft)
04.03.2013 21:24 6,3 C 4,0 C 67 % 1013,7 hPa 0,0 l/m 0 min 0 min 0,0 UV-I 0 W/m 18,0 km/h (3 Bft)
04.03.2013 21:26 6,2 C 4,0 C 68 % 1013,7 hPa 0,0 l/m 0 min 0 min 0,0 UV-I 0 W/m 12,9 km/h (3 Bft)
04.03.2013 21:28 6,2 C 4,0 C 68 % 1013,7 hPa 0,0 l/m 0 min 0 min 0,0 UV-I 0 W/m 10,3 km/h (2 Bft)
04.03.2013 21:30 6,2 C 4,0 C 68 % 1013,7 hPa 0,0 l/m 0 min 0 min 0,0 UV-I 0 W/m 12,9 km/h (3 Bft)
04.03.2013 21:32 6,2 C 4,0 C 68 % 1013,7 hPa 0,0 l/m 0 min 0 min 0,0 UV-I 0 W/m 18,0 km/h (3 Bft)
04.03.2013 21:34 6,1 C 4,0 C 68 % 1013,6 hPa 0,0 l/m 0 min 0 min 0,0 UV-I 0 W/m 15,4 km/h (3 Bft)
04.03.2013 21:36 6,1 C 4,0 C 68 % 1013,7 hPa 0,0 l/m 0 min 0 min 0,0 UV-I 0 W/m 20,6 km/h (4 Bft)
04.03.2013 21:38 6,1 C 4,0 C 68 % 1013,7 hPa 0,0 l/m 0 min 0 min 0,0 UV-I 0 W/m 12,9 km/h (3 Bft)
04.03.2013 21:40 6,0 C 4,0 C 68 % 1013,6 hPa 0,0 l/m 0 min 0 min 0,0 UV-I 0 W/m 20,6 km/h (4 Bft)
04.03.2013 21:42 6,0 C 3,4 C 68 % 1013,7 hPa 0,0 l/m 0 min 0 min 0,0 UV-I 0 W/m 18,0 km/h (3 Bft)
04.03.2013 21:44 6,0 C 4,0 C 69 % 1013,6 hPa 0,0 l/m 0 min 0 min 0,0 UV-I 0 W/m 18,0 km/h (3 Bft)
04.03.2013 21:46 5,9 C 4,0 C 69 % 1013,6 hPa 0,0 l/m 0 min 0 min 0,0 UV-I 0 W/m 20,6 km/h (4 Bft)
04.03.2013 21:48 5,9 C 4,0 C 69 % 1013,6 hPa 0,0 l/m 0 min 0 min 0,0 UV-I 0 W/m 23,2 km/h (4 Bft)
04.03.2013 21:50 5,9 C 4,0 C 69 % 1013,6 hPa 0,0 l/m 0 min 0 min 0,0 UV-I 0 W/m 12,9 km/h (3 Bft)
04.03.2013 21:52 5,9 C 4,0 C 69 % 1013,6 hPa 0,0 l/m 0 min 0 min 0,0 UV-I 0 W/m 23,2 km/h (4 Bft)
04.03.2013 21:54 5,9 C 4,0 C 69 % 1013,5 hPa 0,0 l/m 0 min 0 min 0,0 UV-I 0 W/m 18,0 km/h (3 Bft)
04.03.2013 21:56 5,9 C 4,0 C 69 % 1013,5 hPa 0,0 l/m 0 min 0 min 0,0 UV-I 0 W/m 18,0 km/h (3 Bft)
04.03.2013 21:58 5,9 C 4,0 C 69 % 1013,5 hPa 0,0 l/m 0 min 0 min 0,0 UV-I 0 W/m 20,6 km/h (4 Bft)
04.03.2013 22:00 5,9 C 4,0 C 69 % 1013,5 hPa 0,0 l/m 0 min 0 min 0,0 UV-I 0 W/m 20,6 km/h (4 Bft)
04.03.2013 22:02 5,9 C 4,0 C 69 % 1013,5 hPa 0,0 l/m 0 min 0 min 0,0 UV-I 0 W/m 18,0 km/h (3 Bft)
04.03.2013 22:04 5,9 C 4,0 C 69 % 1013,5 hPa 0,0 l/m 0 min 0 min 0,0 UV-I 0 W/m 23,2 km/h (4 Bft)
04.03.2013 22:06 5,9 C 4,0 C 69 % 1013,5 hPa 0,0 l/m 0 min 0 min 0,0 UV-I 0 W/m 10,3 km/h (2 Bft)
04.03.2013 22:08 5,9 C 4,0 C 69 % 1013,5 hPa 0,0 l/m 0 min 0 min 0,0 UV-I 0 W/m 30,9 km/h (5 Bft)
04.03.2013 22:10 5,9 C 4,0 C 69 % 1013,5 hPa 0,0 l/m 0 min 0 min 0,0 UV-I 0 W/m 15,4 km/h (3 Bft)
04.03.2013 22:12 5,9 C 4,0 C 69 % 1013,4 hPa 0,0 l/m 0 min 0 min 0,0 UV-I 0 W/m 25,7 km/h (4 Bft)
04.03.2013 22:14 5,9 C 4,0 C 69 % 1013,4 hPa 0,0 l/m 0 min 0 min 0,0 UV-I 0 W/m 23,2 km/h (4 Bft)
04.03.2013 22:16 5,9 C 4,0 C 68 % 1013,3 hPa 0,0 l/m 0 min 0 min 0,0 UV-I 0 W/m 20,6 km/h (4 Bft)
04.03.2013 22:18 5,9 C 4,0 C 68 % 1013,4 hPa 0,0 l/m 0 min 0 min 0,0 UV-I 0 W/m 28,3 km/h (4 Bft)
04.03.2013 22:20 5,9 C 4,0 C 68 % 1013,3 hPa 0,0 l/m 0 min 0 min 0,0 UV-I 0 W/m 20,6 km/h (4 Bft)
04.03.2013 22:22 5,9 C 4,0 C 68 % 1013,3 hPa 0,0 l/m 0 min 0 min 0,0 UV-I 0 W/m 15,4 km/h (3 Bft)
04.03.2013 22:24 5,9 C 4,0 C 68 % 1013,3 hPa 0,0 l/m 0 min 0 min 0,0 UV-I 0 W/m 33,5 km/h (5 Bft)
04.03.2013 22:26 5,9 C 4,0 C 68 % 1013,4 hPa 0,0 l/m 0 min 0 min 0,0 UV-I 0 W/m 15,4 km/h (3 Bft)
04.03.2013 22:28 5,9 C 4,0 C 68 % 1013,4 hPa 0,0 l/m 0 min 0 min 0,0 UV-I 0 W/m 20,6 km/h (4 Bft)
04.03.2013 22:30 5,9 C 4,0 C 68 % 1013,4 hPa 0,0 l/m 0 min 0 min 0,0 UV-I 0 W/m 23,2 km/h (4 Bft)
04.03.2013 22:32 5,9 C 4,0 C 68 % 1013,4 hPa 0,0 l/m 0 min 0 min 0,0 UV-I 0 W/m 20,6 km/h (4 Bft)
04.03.2013 22:34 5,9 C 4,0 C 68 % 1013,3 hPa 0,0 l/m 0 min 0 min 0,0 UV-I 0 W/m 20,6 km/h (4 Bft)
04.03.2013 22:36 5,9 C 4,0 C 68 % 1013,3 hPa 0,0 l/m 0 min 0 min 0,0 UV-I 0 W/m 20,6 km/h (4 Bft)
04.03.2013 22:38 5,9 C 4,0 C 68 % 1013,3 hPa 0,0 l/m 0 min 0 min 0,0 UV-I 0 W/m 18,0 km/h (3 Bft)
04.03.2013 22:40 5,9 C 4,0 C 68 % 1013,3 hPa 0,0 l/m 0 min 0 min 0,0 UV-I 0 W/m 23,2 km/h (4 Bft)
04.03.2013 22:42 5,9 C 4,0 C 68 % 1013,4 hPa 0,0 l/m 0 min 0 min 0,0 UV-I 0 W/m 20,6 km/h (4 Bft)
04.03.2013 22:44 5,9 C 4,0 C 68 % 1013,4 hPa 0,0 l/m 0 min 0 min 0,0 UV-I 0 W/m 25,7 km/h (4 Bft)
04.03.2013 22:46 5,9 C 4,0 C 68 % 1013,3 hPa 0,0 l/m 0 min 0 min 0,0 UV-I 0 W/m 20,6 km/h (4 Bft)
04.03.2013 22:48 5,9 C 4,0 C 68 % 1013,2 hPa 0,0 l/m 0 min 0 min 0,0 UV-I 0 W/m 25,7 km/h (4 Bft)
04.03.2013 22:50 5,9 C 4,0 C 68 % 1013,3 hPa 0,0 l/m 0 min 0 min 0,0 UV-I 0 W/m 23,2 km/h (4 Bft)
04.03.2013 22:52 5,9 C 4,0 C 68 % 1013,3 hPa 0,0 l/m 0 min 0 min 0,0 UV-I 0 W/m 28,3 km/h (4 Bft)
04.03.2013 22:54 5,9 C 4,0 C 68 % 1013,2 hPa 0,0 l/m 0 min 0 min 0,0 UV-I 0 W/m 20,6 km/h (4 Bft)
04.03.2013 22:56 5,9 C 4,0 C 68 % 1013,2 hPa 0,0 l/m 0 min 0 min 0,0 UV-I 0 W/m 20,6 km/h (4 Bft)
04.03.2013 22:58 5,9 C 4,0 C 68 % 1013,1 hPa 0,0 l/m 0 min 0 min 0,0 UV-I 0 W/m 20,6 km/h (4 Bft)
04.03.2013 23:00 5,9 C 4,0 C 68 % 1013,1 hPa 0,0 l/m 0 min 0 min 0,0 UV-I 0 W/m 23,2 km/h (4 Bft)
04.03.2013 23:02 5,9 C 4,0 C 68 % 1013,2 hPa 0,0 l/m 0 min 0 min 0,0 UV-I 0 W/m 20,6 km/h (4 Bft)
04.03.2013 23:04 5,9 C 4,0 C 68 % 1013,1 hPa 0,0 l/m 0 min 0 min 0,0 UV-I 0 W/m 18,0 km/h (3 Bft)
04.03.2013 23:06 5,8 C 4,0 C 68 % 1013,1 hPa 0,0 l/m 0 min 0 min 0,0 UV-I 0 W/m 33,5 km/h (5 Bft)
04.03.2013 23:08 5,8 C 4,0 C 68 % 1013,0 hPa 0,0 l/m 0 min 0 min 0,0 UV-I 0 W/m 28,3 km/h (4 Bft)
04.03.2013 23:10 5,8 C 4,0 C 68 % 1013,0 hPa 0,0 l/m 0 min 0 min 0,0 UV-I 0 W/m 30,9 km/h (5 Bft)
04.03.2013 23:12 5,8 C 3,4 C 68 % 1013,0 hPa 0,0 l/m 0 min 0 min 0,0 UV-I 0 W/m 25,7 km/h (4 Bft)
04.03.2013 23:14 5,8 C 4,0 C 68 % 1013,0 hPa 0,0 l/m 0 min 0 min 0,0 UV-I 0 W/m 20,6 km/h (4 Bft)
04.03.2013 23:16 5,8 C 4,0 C 68 % 1012,9 hPa 0,0 l/m 0 min 0 min 0,0 UV-I 0 W/m 18,0 km/h (3 Bft)
04.03.2013 23:18 5,8 C 3,4 C 68 % 1012,9 hPa 0,0 l/m 0 min 0 min 0,0 UV-I 0 W/m 25,7 km/h (4 Bft)
04.03.2013 23:20 5,8 C 3,4 C 68 % 1012,9 hPa 0,0 l/m 0 min 0 min 0,0 UV-I 0 W/m 18,0 km/h (3 Bft)
04.03.2013 23:22 5,7 C 4,0 C 68 % 1012,8 hPa 0,0 l/m 0 min 0 min 0,0 UV-I 0 W/m 28,3 km/h (4 Bft)
04.03.2013 23:24 5,7 C 4,0 C 68 % 1012,9 hPa 0,0 l/m 0 min 0 min 0,0 UV-I 0 W/m 18,0 km/h (3 Bft)
04.03.2013 23:26 5,7 C 3,4 C 68 % 1012,9 hPa 0,0 l/m 0 min 0 min 0,0 UV-I 0 W/m 23,2 km/h (4 Bft)
04.03.2013 23:28 5,7 C 3,4 C 68 % 1013,0 hPa 0,0 l/m 0 min 0 min 0,0 UV-I 0 W/m 23,2 km/h (4 Bft)
04.03.2013 23:30 5,7 C 3,4 C 68 % 1013,0 hPa 0,0 l/m 0 min 0 min 0,0 UV-I 0 W/m 25,7 km/h (4 Bft)
04.03.2013 23:32 5,7 C 3,4 C 68 % 1012,9 hPa 0,0 l/m 0 min 0 min 0,0 UV-I 0 W/m 25,7 km/h (4 Bft)
04.03.2013 23:34 5,6 C 3,4 C 69 % 1012,9 hPa 0,0 l/m 0 min 0 min 0,0 UV-I 0 W/m 18,0 km/h (3 Bft)
04.03.2013 23:36 5,6 C 3,4 C 68 % 1012,9 hPa 0,0 l/m 0 min 0 min 0,0 UV-I 0 W/m 20,6 km/h (4 Bft)
04.03.2013 23:38 5,6 C 3,4 C 68 % 1012,9 hPa 0,0 l/m 0 min 0 min 0,0 UV-I 0 W/m 23,2 km/h (4 Bft)
04.03.2013 23:40 5,6 C 3,4 C 69 % 1012,8 hPa 0,0 l/m 0 min 0 min 0,0 UV-I 0 W/m 18,0 km/h (3 Bft)
04.03.2013 23:42 5,6 C 3,4 C 69 % 1012,8 hPa 0,0 l/m 0 min 0 min 0,0 UV-I 0 W/m 25,7 km/h (4 Bft)
04.03.2013 23:44 5,6 C 3,4 C 69 % 1012,9 hPa 0,0 l/m 0 min 0 min 0,0 UV-I 0 W/m 25,7 km/h (4 Bft)
04.03.2013 23:46 5,5 C 3,4 C 69 % 1012,9 hPa 0,0 l/m 0 min 0 min 0,0 UV-I 0 W/m 20,6 km/h (4 Bft)
04.03.2013 23:48 5,5 C 3,4 C 69 % 1012,8 hPa 0,0 l/m 0 min 0 min 0,0 UV-I 0 W/m 28,3 km/h (4 Bft)
04.03.2013 23:50 5,5 C 3,4 C 69 % 1012,8 hPa 0,0 l/m 0 min 0 min 0,0 UV-I 0 W/m 18,0 km/h (3 Bft)
04.03.2013 23:52 5,4 C 3,4 C 69 % 1012,8 hPa 0,0 l/m 0 min 0 min 0,0 UV-I 0 W/m 25,7 km/h (4 Bft)
04.03.2013 23:54 5,4 C 3,4 C 69 % 1012,8 hPa 0,0 l/m 0 min 0 min 0,0 UV-I 0 W/m 25,7 km/h (4 Bft)
04.03.2013 23:56 5,4 C 3,4 C 69 % 1012,8 hPa 0,0 l/m 0 min 0 min 0,0 UV-I 0 W/m 20,6 km/h (4 Bft)
04.03.2013 23:58 5,4 C 3,4 C 69 % 1012,8 hPa 0,0 l/m 0 min 0 min 0,0 UV-I 0 W/m 20,6 km/h (4 Bft)
_ Min-Zeit 06:28 00:14 15:06 23:22 - - - - - 00:00
Minimum _ -0,6 C -2,1 C 47 % 1012,8 hPa - - - - - 0,0 km/h (0 Bft)
_ Max-Zeit 16:20 16:02 02:38 00:00 00:00 08:56 00:00 12:12 12:48 12:30
Maximum _ 12,3 C 11,2 C 96 % 1022,3 hPa 0,0 l/m 2 min 0 min 1,3 UV-I 538 W/m 43,8 km/h
SO (6 Bft)
Durchschnitt _ 5,1 C 3,3 C 73 % 1017,5 hPa #0,0 l/m #7:46 h #0 min. 1,0 UV-I 302 W/m 15,5 km/h (3 Bft)
© 2013 W. Hausmann